GFSGBSN_prec_cthk_057.txt.gz
RH
31 32 30 30 32 30 28 31 35 35 37 42 42 40 44 46 43 46 52 50 50 51 52 56 59 57 63 78 77 75 66 66 63 81 91 78 51 49 56 60 61 59 73 87 88 83 82
32 33 27 27 30 30 29 29 35 36 36 43 45 42 46 43 45 49 50 48 46 45 54 57 58 54 60 75 84 81 68 61 53 81 86 83 50 48 65 59 64 63 67 84 90 85 83
32 33 29 28 30 30 32 28 32 37 36 41 47 43 46 43 42 47 47 45 46 48 49 50 54 55 56 69 80 95 69 59 52 83 88 88 60 58 59 63 64 68 75 91 90 91 91
34 34 31 28 31 31 31 29 27 34 32 40 45 44 47 45 41 41 40 41 47 53 50 50 57 54 58 78 81 94 75 65 60 93 94 90 76 63 55 61 62 67 78 88 81 85 87
36 34 33 29 29 31 34 35 28 29 32 35 43 46 45 51 45 47 44 47 53 57 55 56 58 58 71 79 85 97 77 73 70 94 98 91 76 63 53 58 60 63 65 65 65 72 73
36 33 32 30 30 30 32 34 37 38 32 30 43 44 40 52 50 53 50 51 58 67 67 70 64 68 79 96 96 96 80 71 78 99 98 95 81 68 62 55 57 55 50 53 53 58 67
37 32 32 32 30 30 30 29 30 36 44 25 30 40 43 47 55 55 61 58 59 61 70 67 65 71 80 89 91 92 75 73 84 94 95 95 81 67 63 52 47 50 49 51 49 47 56
40 33 32 30 31 30 29 31 30 34 38 40 26 40 42 44 51 57 64 70 77 70 69 68 69 74 75 78 81 85 70 72 79 94 95 94 80 70 64 51 51 49 53 53 51 49 53
39 35 32 31 29 31 29 31 30 29 36 35 24 32 40 45 48 52 62 71 80 86 70 70 68 71 74 85 87 80 84 96 80 97 94 84 72 73 65 58 54 50 52 52 52 50 54
38 34 32 32 30 29 29 30 29 28 30 32 32 27 38 44 49 50 58 65 71 84 81 70 64 68 74 80 89 88 97 99 98 97 93 91 77 74 70 69 59 54 51 56 55 57 60
35 33 32 32 29 30 29 28 28 28 27 30 32 23 37 41 46 50 56 62 67 74 79 75 70 67 79 97 91 93 90 87 95 97 96 91 85 78 76 70 58 59 57 56 57 62 60
34 33 32 32 30 30 29 27 26 26 26 27 29 27 36 43 44 49 55 55 67 70 79 73 76 76 82 86 91 97 98 98 96 95 92 92 88 82 81 79 66 61 64 64 64 63 71
35 32 32 31 31 30 28 26 24 24 23 26 22 30 36 43 45 48 51 56 64 72 73 75 78 72 76 79 88 97 97 98 96 97 98 93 89 81 75 71 71 68 69 82 80 79 70
35 30 33 32 32 31 29 25 22 23 22 24 21 32 38 42 47 48 50 52 61 68 77 75 72 73 72 71 82 90 93 97 91 84 87 88 87 76 70 70 72 69 68 73 72 76 64
35 31 33 33 34 32 28 25 22 22 21 23 23 29 40 43 48 49 50 50 53 65 72 78 74 74 79 76 74 82 85 89 85 77 74 80 80 74 73 71 68 71 75 65 68 66 72
35 32 32 34 37 33 28 25 22 22 20 23 26 32 39 43 49 50 49 49 53 55 64 70 72 68 69 67 70 72 75 72 73 68 63 66 76 70 74 73 74 75 74 83 82 83 76
35 32 32 35 38 35 27 24 23 22 21 24 32 39 41 44 54 54 51 52 51 53 58 62 70 71 71 73 73 72 75 71 66 68 65 65 65 74 77 74 72 82 84 85 82 81 75
36 34 34 36 39 37 30 25 24 24 22 25 35 42 45 44 55 57 54 51 50 50 51 57 60 66 72 79 85 79 74 69 68 68 74 71 74 80 83 80 84 86 87 93 94 89 81
37 35 33 37 38 35 31 26 24 23 23 27 31 39 47 49 57 58 58 53 50 50 52 51 56 59 63 67 69 74 77 72 79 79 82 81 87 89 89 89 87 91 87 85 88 85 80
36 34 34 36 36 34 32 28 25 21 22 29 37 42 48 51 53 58 58 60 55 52 51 50 50 52 55 57 60 69 73 74 77 82 87 85 85 81 84 75 81 89 87 90 93 91 78
34 35 35 36 37 34 33 30 24 22 21 30 34 41 46 53 59 58 59 60 62 62 56 54 52 50 51 52 51 54 65 69 69 71 75 80 84 83 77 75 79 79 82 84 86 80 85
34 35 35 35 37 36 32 30 26 23 21 23 28 35 41 50 57 60 62 64 64 65 63 58 54 54 54 52 50 52 49 54 61 63 64 68 73 69 71 70 71 72 71 76 75 77 76
38 37 35 37 37 35 32 33 30 28 27 25 29 33 38 46 53 60 66 69 73 74 69 62 60 61 55 58 59 58 55 53 51 53 58 60 63 63 63 64 63 66 62 62 62 62 64
40 36 33 36 37 37 35 33 36 34 34 35 30 29 33 45 52 61 63 64 74 76 76 72 68 67 64 64 63 62 62 60 56 56 55 59 61 63 66 59 62 41 43 47 51 50 51
37 35 37 37 37 40 36 34 37 35 36 35 36 32 29 32 46 53 61 70 79 79 83 78 76 76 75 73 74 75 74 67 62 60 60 62 64 68 67 68 48 34 39 45 53 50 48
38 40 41 38 40 41 35 34 36 36 36 34 36 36 36 35 38 40 45 60 77 87 84 83 81 75 74 78 77 77 79 72 71 67 65 67 68 69 73 63 58 44 50 50 49 56 58
42 44 41 41 42 39 35 34 36 36 35 35 36 36 38 41 42 44 47 50 59 67 83 84 82 81 76 74 73 71 70 62 66 64 72 73 71 69 68 67 55 44 47 56 64 58 62
42 42 43 42 42 37 33 34 34 34 34 35 38 39 42 44 43 49 54 55 61 63 67 85 88 87 87 81 77 72 68 60 61 58 61 63 70 74 71 74 70 50 52 55 54 54 57
41 43 44 42 39 35 32 33 34 35 34 38 42 45 46 49 52 57 58 55 56 68 68 66 95 92 88 87 82 79 72 63 60 61 56 61 55 57 56 54 46 52 57 58 56 56 58

GFSGBSN_prec_cthk_060.txt.gz
RH
33 32 29 28 30 29 29 28 29 34 36 35 43 41 42 41 40 38 40 39 41 41 46 53 55 55 60 64 69 69 71 76 89 93 81 82 62 48 50 56 62 67 76 73 74 79 80
37 34 31 28 30 32 29 27 26 31 35 31 43 43 42 43 39 41 44 40 40 44 47 54 60 59 56 58 63 72 74 73 77 93 88 83 67 54 48 52 58 61 71 80 78 80 84
37 35 33 31 30 30 32 32 34 31 32 32 39 45 44 49 40 40 46 42 40 46 51 55 58 57 55 54 67 72 70 69 69 76 87 86 76 63 51 54 58 63 65 71 75 86 87
37 35 34 32 30 30 31 34 35 39 38 31 34 44 44 50 44 45 44 47 45 50 54 53 72 55 51 64 78 78 71 62 61 63 88 91 82 72 60 58 61 71 71 74 71 75 87
41 38 34 33 30 32 32 32 31 38 42 41 27 43 46 50 50 53 50 54 51 54 58 69 71 62 65 84 94 92 83 63 61 65 91 98 90 79 65 65 69 68 75 65 73 73 85
38 39 34 34 30 31 32 31 33 38 42 44 35 36 47 48 58 54 56 59 52 55 61 62 64 74 81 89 94 98 78 68 63 68 91 98 91 87 76 60 63 67 70 67 67 73 81
38 40 35 33 30 31 31 31 32 36 40 43 41 27 45 48 51 56 61 66 61 57 63 68 72 76 81 89 95 89 83 83 68 86 98 97 90 81 75 57 49 56 62 65 62 63 70
37 39 36 33 31 33 32 30 31 31 31 38 41 27 39 47 47 56 61 67 77 63 69 73 72 72 75 92 95 85 81 79 91 98 97 96 87 83 75 57 52 53 56 57 55 57 62
41 37 36 32 32 32 32 30 29 29 31 34 38 32 34 42 46 52 58 65 69 71 63 64 64 67 73 81 88 86 82 87 97 98 97 87 82 80 70 58 55 51 54 56 55 54 59
40 37 35 32 34 32 33 31 27 27 27 28 30 33 29 42 46 50 56 62 63 68 72 67 64 68 80 76 84 73 71 75 95 97 93 90 84 74 74 68 54 53 49 51 55 59 67
41 38 33 32 34 33 33 32 27 24 25 24 27 29 30 41 46 50 54 60 67 68 75 69 67 75 84 75 72 78 73 69 86 97 89 94 88 79 75 67 49 54 49 52 56 62 59
42 37 34 32 33 34 34 32 28 22 23 23 26 24 33 41 46 48 54 55 71 67 76 75 70 77 73 76 88 91 93 87 78 95 96 95 86 78 76 72 66 59 57 58 60 63 69
40 36 36 32 32 34 35 34 29 23 21 23 24 25 36 40 46 52 53 56 66 67 68 74 71 68 72 82 88 89 94 93 96 98 97 95 93 82 76 71 69 63 65 77 76 75 70
39 35 36 33 32 34 36 35 30 24 20 23 24 29 36 42 47 52 53 56 60 68 68 69 70 68 71 81 91 95 98 91 94 88 88 95 96 90 80 74 71 69 67 72 72 75 65
38 35 34 33 34 35 35 33 29 25 21 23 24 31 37 42 46 52 52 53 54 64 66 70 69 72 72 78 84 91 97 93 85 86 85 91 90 84 82 79 74 75 74 67 70 65 67
37 35 33 34 35 34 34 32 28 26 21 24 27 33 40 42 48 51 53 53 56 59 68 67 72 69 74 69 74 84 90 91 88 82 74 75 84 79 75 71 71 72 71 75 76 79 70
38 36 34 34 36 34 33 31 28 26 24 25 32 38 45 45 51 52 53 54 53 58 62 66 66 65 68 65 67 71 71 76 75 71 67 68 68 79 75 73 69 73 74 72 69 72 72
38 36 35 33 37 34 32 31 29 28 25 27 35 44 45 48 53 52 52 52 53 53 58 63 66 66 72 73 75 75 72 70 68 67 65 61 65 75 68 68 64 68 70 75 79 75 78
41 37 35 33 35 34 33 33 28 28 27 29 34 41 46 49 54 52 53 53 54 54 56 55 65 64 68 75 77 72 73 72 74 68 64 63 71 77 78 74 74 76 75 81 87 87 85
40 36 36 33 34 33 34 33 29 28 26 33 39 44 48 49 53 56 55 55 55 55 59 60 62 67 66 65 72 78 74 71 76 73 76 74 74 70 74 67 77 84 83 81 86 88 77
44 40 36 34 33 32 33 33 30 27 25 31 36 42 45 49 54 54 56 59 61 66 65 64 64 62 64 65 64 65 73 76 79 84 85 87 86 83 78 77 79 81 81 87 91 85 87
43 39 37 35 33 32 33 34 30 30 25 25 29 33 38 45 50 53 54 59 63 69 71 73 68 67 65 63 60 64 61 65 75 74 81 84 85 85 85 79 80 80 79 80 80 81 83
45 40 38 36 33 32 36 35 34 30 27 25 26 28 32 40 46 53 57 60 67 72 74 74 72 68 66 66 63 60 62 60 59 69 75 77 80 80 74 70 67 68 59 62 68 69 69
50 42 39 38 34 35 38 37 35 31 29 28 26 24 30 38 42 51 54 59 65 72 77 77 75 71 70 71 67 68 69 69 67 65 64 69 70 69 70 64 62 43 42 45 54 55 58
56 47 42 38 37 38 42 38 34 31 29 28 28 29 27 27 35 40 50 62 65 69 80 79 81 81 79 74 71 71 73 70 71 70 67 64 65 69 68 69 49 39 47 46 46 48 54
59 52 44 40 39 41 42 36 35 30 28 27 28 31 31 29 32 34 35 47 63 71 76 84 86 81 83 82 77 76 76 76 77 76 71 69 68 69 75 73 67 45 46 48 51 58 56
61 50 44 40 41 42 43 37 34 30 28 28 30 31 33 34 38 39 42 44 42 48 66 85 89 89 81 81 84 86 81 74 77 74 76 78 79 83 80 78 61 46 46 49 64 58 55
63 48 45 42 42 42 39 38 33 29 28 27 30 32 33 38 41 45 48 50 51 50 53 70 89 89 86 84 78 77 74 68 68 64 68 74 78 81 76 75 70 53 56 58 55 55 56
58 47 44 44 43 40 39 36 32 27 29 32 34 36 36 40 43 48 50 52 58 58 60 54 79 88 90 88 85 82 76 69 65 64 61 65 61 63 62 61 52 53 57 58 58 56 56

GFSGBSN_prec_cthk_063.txt.gz
RH
37 33 32 32 30 32 33 34 32 31 32 32 33 38 38 41 38 40 45 48 44 43 43 42 51 50 59 67 72 80 72 72 85 98 92 87 86 64 57 57 66 81 81 79 79 78 81
37 36 33 33 31 32 32 34 33 36 38 36 35 34 41 42 42 40 45 50 42 44 48 46 48 53 57 60 60 69 77 84 82 96 95 93 84 68 52 59 59 65 72 74 76 76 79
38 39 38 34 33 31 33 34 32 35 37 40 38 31 41 44 47 47 44 47 42 44 47 50 48 67 50 55 57 63 72 78 80 91 92 97 86 69 55 57 58 59 70 72 75 75 84
41 40 37 36 36 31 34 36 32 36 38 40 41 31 38 43 53 52 49 50 42 48 49 49 56 51 46 52 55 59 69 71 84 83 87 97 89 76 59 55 57 61 67 73 73 77 78
46 40 36 39 37 32 33 34 34 36 36 37 41 39 31 45 52 55 52 54 42 50 58 60 60 62 69 81 81 67 65 66 76 87 93 97 94 80 66 59 61 66 61 60 68 69 70
49 47 37 40 37 33 34 33 34 35 36 35 39 40 29 41 47 54 54 58 43 52 60 65 71 77 89 98 97 86 70 68 71 85 95 98 94 83 72 67 58 62 62 61 60 67 68
52 47 40 38 37 34 34 34 34 35 35 35 35 38 29 41 44 50 58 59 54 53 56 59 71 76 88 94 99 99 71 68 81 79 88 97 89 78 72 68 57 52 55 63 63 64 66
56 47 43 37 37 34 35 34 36 35 33 33 33 33 30 36 42 45 56 64 65 58 60 60 66 73 82 97 95 87 79 83 79 71 95 96 89 82 75 69 62 58 60 64 69 64 66
57 46 45 37 37 34 35 35 36 35 29 31 30 28 29 35 40 43 51 62 64 66 67 64 64 72 77 84 89 94 82 84 73 78 96 95 90 84 82 72 62 56 54 59 60 59 63
58 47 43 40 37 34 34 36 37 34 28 28 26 27 26 35 40 44 49 56 64 64 70 70 79 88 80 85 87 92 89 78 75 90 98 95 89 87 86 78 63 55 51 52 52 53 61
61 47 42 41 37 33 35 35 36 32 27 23 24 26 25 37 42 43 48 53 60 67 75 67 77 83 80 82 78 82 82 88 97 97 97 96 91 89 85 75 61 55 50 51 52 56 54
55 46 39 40 36 34 34 35 33 30 26 23 24 26 29 38 44 44 49 51 65 64 72 76 69 80 85 86 73 77 89 88 96 97 94 93 88 84 88 79 63 57 55 57 59 59 63
57 50 39 39 35 34 35 34 32 29 26 24 25 27 33 41 46 46 49 52 59 66 65 66 69 64 80 82 75 77 85 88 89 98 98 96 92 83 85 77 67 55 60 71 71 70 64
66 54 42 38 33 35 36 34 30 28 27 25 27 31 35 40 48 49 51 51 58 66 70 65 60 66 80 86 83 75 80 82 83 90 94 94 95 89 82 76 74 62 58 63 66 68 59
76 55 46 38 33 34 36 33 29 29 27 28 30 34 39 41 46 49 51 50 53 64 66 63 65 68 75 86 82 80 82 81 79 86 85 90 92 83 83 78 70 71 67 57 61 60 60
84 63 45 38 34 35 35 32 30 29 27 30 34 38 42 43 44 51 51 51 56 61 70 71 70 71 73 79 85 86 87 84 87 86 83 83 93 92 86 82 78 75 63 70 71 73 68
90 80 49 39 34 35 34 31 30 30 27 31 38 42 46 44 47 50 53 55 56 64 67 71 67 69 72 69 84 83 86 86 85 85 82 78 81 93 87 83 82 83 82 74 66 68 67
92 87 55 41 35 34 35 31 31 30 28 33 38 44 46 45 48 52 54 56 57 59 65 69 71 65 73 67 76 80 84 92 87 82 80 75 78 84 82 75 69 69 70 72 75 69 68
91 88 59 40 36 33 34 33 30 30 27 32 36 41 45 47 49 53 52 56 60 59 60 61 70 68 72 78 76 75 73 75 78 73 72 72 77 84 82 74 73 71 64 65 70 69 70
89 89 64 39 36 32 33 33 33 30 26 30 35 41 46 47 49 53 56 56 56 59 60 60 65 71 68 76 80 80 77 77 80 77 71 68 71 67 67 60 65 70 62 63 66 77 69
92 87 65 38 35 32 32 33 33 31 27 29 32 35 39 45 50 52 56 58 60 64 66 62 62 66 70 72 77 85 82 80 80 81 78 73 73 71 66 64 68 69 71 75 75 74 76
98 89 62 41 38 34 33 33 35 32 26 26 26 31 34 40 46 50 54 60 64 67 69 72 66 63 62 64 63 65 72 76 80 81 83 84 88 84 84 80 78 80 77 79 79 77 77
98 90 65 42 38 35 34 33 37 35 28 24 24 24 28 35 39 47 52 57 64 67 71 75 74 73 65 66 65 58 60 59 62 77 81 83 86 83 83 81 74 68 64 66 69 71 73
97 89 67 44 39 38 36 36 39 36 30 26 22 22 26 34 36 43 46 53 63 65 73 74 79 76 80 71 64 64 63 63 62 61 65 74 75 73 71 62 67 46 45 47 50 48 57
96 89 62 52 42 39 37 39 38 34 31 26 23 22 21 29 32 34 40 49 55 63 71 77 86 86 84 77 76 74 73 69 69 69 68 64 66 73 73 71 54 46 53 52 49 47 52
94 85 68 55 46 42 39 42 38 34 32 27 24 24 25 24 28 30 32 41 52 59 67 75 87 92 90 88 85 81 74 72 76 77 78 77 70 71 75 74 70 56 56 56 57 61 55
92 88 67 57 51 42 40 42 38 35 32 27 25 25 27 29 34 35 35 36 38 44 58 75 77 93 90 86 89 86 79 71 77 80 87 91 88 84 84 82 71 59 57 55 62 60 60
90 88 75 56 50 43 43 41 36 34 28 28 28 29 28 31 37 40 42 43 46 46 46 57 78 87 95 90 86 86 82 78 79 74 75 80 85 86 86 87 77 64 66 68 63 59 58
91 78 69 58 44 43 43 40 35 32 33 31 30 29 30 32 40 43 43 46 49 52 54 49 67 80 87 92 88 84 84 80 75 75 70 71 67 70 69 69 61 65 66 67 67 65 62

GFSGBSN_prec_cthk_069.txt.gz
RH
57 57 48 44 42 36 34 36 35 35 35 34 34 35 39 35 42 42 41 37 36 34 30 33 39 40 41 49 64 70 68 74 81 89 92 88 85 79 58 64 93 83 69 78 88 82 65
69 64 56 47 46 40 35 36 36 36 36 35 34 35 37 39 38 43 44 41 37 38 35 40 48 47 51 51 50 57 58 69 88 88 97 88 91 76 60 66 87 83 78 77 89 84 74
79 65 61 52 50 43 38 35 37 36 36 34 33 34 36 41 36 43 49 45 41 41 39 42 46 56 56 48 47 48 50 62 91 95 94 92 98 93 67 68 80 89 84 80 69 89 72
88 77 65 58 56 49 41 38 38 37 36 35 32 33 34 38 37 43 48 50 48 42 43 47 50 57 63 47 43 46 57 68 89 90 94 94 97 88 71 69 80 88 87 93 90 85 77
85 88 76 64 59 51 44 39 38 37 35 36 32 32 33 37 37 42 43 47 55 50 52 53 60 69 83 72 62 56 56 75 91 88 96 98 96 85 77 67 79 90 94 94 85 86 75
93 88 81 67 61 52 46 40 38 36 35 33 32 32 33 36 34 40 41 48 53 56 64 65 70 80 84 94 90 60 62 80 93 97 92 98 92 89 79 69 67 66 75 78 78 85 82
92 89 86 71 55 60 49 40 37 36 34 34 32 33 32 34 30 42 40 51 61 63 69 76 77 82 86 95 83 60 67 80 97 97 97 97 98 86 66 58 53 55 58 64 71 81 82
90 89 86 83 72 60 49 38 35 35 34 32 32 32 30 28 30 42 38 50 62 62 72 81 79 85 89 94 72 52 66 84 93 98 97 96 92 80 75 70 66 61 64 63 72 72 62
89 95 89 88 77 62 50 38 35 34 34 30 29 30 27 24 33 38 42 47 57 59 71 80 81 90 94 96 71 64 73 92 94 96 96 98 90 83 76 68 64 58 61 61 60 59 58
91 97 94 91 82 71 57 40 34 34 34 29 28 27 27 24 36 40 43 43 54 58 74 78 71 86 88 89 91 83 84 84 90 94 91 96 88 84 73 68 61 63 57 60 56 53 49
91 98 94 95 94 72 59 43 33 34 33 29 27 26 26 29 37 40 42 43 52 62 74 76 68 74 88 88 88 88 73 80 80 87 88 95 85 81 78 72 68 68 54 55 55 50 46
90 97 99 96 95 76 57 45 33 34 32 29 27 27 28 33 38 40 41 43 55 71 69 73 71 68 73 75 78 76 75 74 83 85 91 92 92 86 80 74 68 61 55 52 54 51 54
83 95 99 97 95 80 59 47 33 34 32 30 27 28 33 36 41 38 44 47 61 73 57 67 77 65 68 69 70 74 70 72 78 95 98 93 94 89 87 78 69 61 59 63 63 63 57
82 92 99 98 94 85 67 49 33 34 31 31 28 31 35 37 38 39 46 48 62 60 61 62 74 77 72 67 68 72 67 71 73 86 94 96 95 89 88 79 71 67 59 59 62 60 51
84 93 98 99 97 91 77 51 34 33 31 31 31 34 37 37 39 40 45 54 56 56 55 57 69 83 72 70 65 71 72 68 79 90 89 86 94 90 88 85 79 74 71 66 61 55 51
85 92 97 99 98 96 93 61 36 32 32 30 36 37 39 40 40 42 45 49 52 50 61 58 60 72 75 68 70 80 77 76 78 85 82 77 88 90 90 84 79 77 72 69 64 67 46
80 90 98 99 98 98 96 80 37 31 32 31 39 40 41 42 44 47 48 49 50 50 59 65 58 64 68 68 71 72 79 75 77 82 78 79 78 85 88 85 79 74 73 66 61 57 57
83 90 99 98 99 99 95 84 39 31 33 34 40 40 40 43 47 44 46 45 49 53 56 62 62 64 63 73 71 67 78 77 71 73 80 78 86 92 81 81 78 77 69 65 63 63 51
84 91 97 99 99 99 96 84 38 31 33 35 41 40 40 43 44 44 45 47 50 53 53 56 65 64 62 64 76 72 75 76 77 72 81 78 82 94 96 84 74 72 65 65 65 69 76
89 94 98 99 99 99 94 83 37 31 32 35 41 40 43 46 44 43 44 47 52 54 53 51 56 62 67 66 62 71 76 83 83 80 83 80 76 77 76 71 68 71 68 68 70 86 67
88 95 98 99 99 98 93 80 36 33 32 36 37 38 37 43 41 42 44 47 49 54 52 52 55 61 68 72 69 69 72 84 90 89 88 84 86 80 70 69 65 66 63 61 66 60 67
92 94 98 99 99 97 92 67 41 34 32 36 37 33 35 40 35 40 43 44 46 55 52 53 56 60 65 72 74 79 74 75 79 85 83 80 80 73 75 69 67 67 60 56 54 54 56
85 96 99 99 99 96 89 65 39 36 33 37 32 28 31 36 39 39 39 41 47 53 55 56 56 58 62 66 70 71 77 77 74 77 81 83 80 78 81 68 65 62 53 53 56 57 56
96 99 99 99 98 94 88 60 48 39 36 33 30 29 29 32 33 36 37 40 47 50 56 56 57 61 66 67 65 65 62 62 64 68 77 81 83 80 80 71 73 54 51 49 50 52 51
87 89 98 99 99 96 91 60 60 42 36 32 30 26 28 29 30 32 34 38 45 50 55 59 59 62 66 69 71 71 69 68 64 59 59 67 76 83 83 74 59 52 51 48 47 52 50
86 92 98 99 99 97 89 56 55 43 35 33 29 24 25 26 31 30 35 39 42 46 52 54 61 64 68 70 76 77 78 68 69 70 66 63 64 65 64 67 59 56 49 48 49 60 57
89 98 99 99 98 96 82 58 55 48 36 35 30 26 28 27 31 31 33 38 39 43 49 51 56 63 71 77 80 76 76 68 67 64 68 74 73 71 70 68 57 50 49 51 56 68 61
99 98 99 99 97 93 74 60 56 53 40 36 31 27 28 30 32 31 31 33 37 42 44 45 55 60 69 78 80 81 72 71 66 67 68 67 70 73 74 80 72 60 57 62 68 63 62
92 99 99 98 97 90 80 58 55 53 40 34 31 30 30 31 34 33 32 31 31 34 42 46 51 57 62 75 78 80 73 69 70 72 68 72 71 75 70 79 70 69 67 68 68 66 65

GFSGBSN_prec_cthk_072.txt.gz
RH
81 81 78 70 64 56 49 45 35 33 35 37 37 34 34 36 37 34 41 40 37 36 39 38 40 43 38 51 56 70 67 77 83 91 86 75 94 92 85 67 84 89 85 88 74 71 70
81 85 84 82 75 65 57 50 41 34 36 37 38 34 33 35 37 35 38 45 41 36 43 45 43 46 51 55 52 55 58 70 87 85 80 81 93 88 84 65 74 86 93 87 90 73 66
83 87 91 87 87 75 60 53 45 34 37 36 37 34 32 34 35 36 38 43 47 41 44 52 48 53 59 58 51 45 54 62 78 82 91 93 94 94 88 68 67 83 95 97 78 75 82
82 87 91 92 90 83 64 53 53 35 36 36 35 34 32 34 34 36 39 41 43 46 52 54 53 62 72 68 49 43 51 55 70 89 91 82 93 95 92 64 81 90 97 96 96 94 83
78 86 89 89 88 87 72 63 54 37 35 36 33 33 33 34 33 35 36 37 43 47 57 63 61 73 78 85 81 58 47 55 63 90 96 79 95 93 82 81 85 96 96 92 89 86 94
66 79 85 90 90 87 82 72 53 39 34 34 34 32 31 34 33 32 35 38 45 48 61 73 71 77 81 92 96 87 45 55 88 91 96 89 97 94 85 80 88 88 84 82 82 83 88
47 67 78 88 93 91 87 79 64 46 33 33 34 29 29 34 31 30 35 39 52 58 67 69 72 80 87 88 91 70 42 70 95 94 93 89 98 89 74 68 57 87 89 83 79 77 78
32 49 71 80 96 94 91 84 64 49 33 32 34 29 27 31 27 35 35 43 51 54 65 68 72 88 90 86 65 48 64 88 96 97 97 98 93 79 74 69 71 68 77 84 84 79 76
34 37 58 74 90 98 96 96 70 51 33 32 33 29 27 28 29 36 37 42 46 54 69 68 69 81 89 86 57 66 84 86 94 96 97 97 92 86 81 73 71 68 65 72 80 91 85
38 35 46 69 85 99 98 98 81 50 34 32 32 29 28 27 37 38 41 41 44 54 75 70 66 77 91 68 71 87 88 85 93 95 93 95 92 84 84 75 65 65 62 68 72 75 71
35 38 40 60 79 96 98 99 87 50 35 32 31 28 28 27 38 40 41 40 45 60 77 70 60 69 80 80 93 94 92 84 92 90 83 95 93 85 78 73 70 69 64 64 72 65 63
29 41 42 56 73 91 99 99 89 53 36 32 30 29 31 33 38 40 38 41 51 71 67 71 59 66 72 78 85 89 87 82 83 81 90 92 90 89 94 72 68 68 65 66 62 68 78
37 40 45 54 69 93 99 99 91 60 37 32 30 32 34 36 41 38 39 46 61 69 56 69 58 58 62 71 74 79 72 78 80 85 96 91 90 89 87 74 70 67 67 80 77 78 74
46 43 49 54 77 89 98 98 94 67 38 32 31 35 35 38 38 39 44 48 59 59 59 62 62 61 58 56 63 64 66 73 78 83 90 95 91 86 82 74 70 69 62 73 65 69 64
53 50 52 58 82 88 98 99 93 77 40 32 33 38 38 36 39 39 44 48 60 55 56 59 70 65 59 52 65 62 62 68 72 79 86 93 92 87 85 81 71 71 73 64 67 55 68
60 52 59 66 87 90 97 99 96 89 47 32 36 42 41 38 40 40 46 49 50 51 56 57 73 66 60 57 54 62 59 59 64 76 78 79 92 87 87 85 78 76 68 72 74 77 57
65 60 63 81 89 92 96 99 97 92 58 33 41 46 41 40 40 45 43 46 48 49 57 61 66 68 63 63 60 67 66 70 71 76 75 78 77 92 86 84 82 80 79 74 70 67 79
59 73 72 89 93 97 95 99 98 91 59 35 43 49 43 41 43 42 41 44 47 50 56 62 63 69 66 66 66 66 74 70 72 74 75 76 84 87 86 85 81 78 72 74 80 78 61
49 72 85 91 91 98 95 99 98 90 57 37 46 47 42 42 42 40 41 44 49 52 54 58 61 63 61 70 71 66 67 72 68 72 73 75 85 92 91 83 81 82 77 71 67 70 71
52 83 91 93 99 94 94 99 98 88 53 39 44 48 47 45 44 39 44 43 49 51 52 53 60 61 63 61 63 69 69 74 76 72 70 76 81 84 89 77 75 77 71 68 73 84 70
58 84 91 98 97 97 97 99 96 83 48 42 44 46 36 41 40 40 43 41 43 51 51 51 52 59 64 73 67 67 72 75 77 76 74 75 83 84 77 78 75 70 69 70 71 69 75
66 91 96 97 97 97 98 99 94 77 41 40 40 43 39 37 35 37 43 43 39 49 47 50 53 55 60 75 72 73 69 72 80 84 83 85 92 86 84 74 72 73 67 65 62 61 62
83 98 98 98 94 98 99 98 92 69 39 39 40 39 33 37 37 38 38 41 42 49 49 51 52 54 60 64 71 73 75 76 73 80 85 86 87 88 86 71 67 69 58 58 58 57 58
88 98 99 97 99 99 99 97 88 69 36 36 35 35 35 36 38 36 38 41 44 46 52 53 54 55 59 64 65 70 70 69 74 74 76 84 88 87 89 75 78 59 52 52 55 56 59
88 98 97 97 94 98 99 96 88 63 38 37 34 32 29 35 35 36 35 39 42 45 53 56 52 54 58 59 64 68 71 66 63 61 65 71 86 92 91 84 66 58 57 52 47 49 47
87 97 97 91 92 98 98 95 85 61 52 38 33 29 28 32 35 34 34 36 41 45 50 54 53 54 55 60 64 67 74 66 72 68 61 60 65 74 78 80 69 63 56 51 52 64 57
87 98 97 93 96 97 97 94 88 74 49 37 35 31 28 31 35 34 35 37 39 41 47 50 53 59 58 61 71 70 78 73 76 69 70 70 70 74 74 73 63 56 52 51 57 68 63
90 98 98 97 98 99 97 93 89 68 52 38 38 31 27 32 36 34 33 34 36 38 44 45 54 57 61 65 66 66 71 72 69 71 70 68 74 72 73 82 77 58 55 58 64 62 63
95 98 97 97 98 99 97 93 86 71 55 43 37 33 29 30 38 34 34 34 36 37 39 45 49 54 60 63 63 67 67 68 68 75 71 75 68 80 71 72 65 63 65 67 69 70 68

GFSGBSN_prec_cthk_075.txt.gz
RH
71 74 78 78 83 84 82 78 67 48 45 30 33 39 38 35 34 36 36 34 43 38 43 44 47 42 42 48 52 51 58 64 84 88 93 89 79 85 89 84 86 87 78 91 93 81 77
57 66 74 79 80 84 85 84 80 60 47 33 33 37 39 37 34 35 37 35 40 42 42 50 54 45 52 60 53 51 52 57 78 86 92 89 88 92 88 85 85 82 88 89 94 92 79
37 47 61 77 80 80 86 83 86 76 55 36 33 36 39 37 34 34 36 37 39 43 50 55 60 53 59 61 63 51 48 51 70 80 94 87 80 93 94 87 81 81 91 82 96 90 89
39 37 41 52 72 82 79 85 86 84 69 51 33 34 37 36 34 32 35 35 36 41 48 60 60 63 67 69 82 55 44 54 64 74 89 80 88 91 97 83 81 86 92 97 93 93 88
43 42 39 41 50 68 84 81 89 88 72 56 34 33 36 33 31 32 30 32 35 41 48 61 67 72 76 80 92 84 56 53 66 69 84 81 86 93 91 94 90 91 96 97 96 97 96
41 43 42 43 45 47 69 83 86 95 85 66 37 33 34 31 28 28 30 32 36 44 54 65 69 78 86 92 86 91 66 50 75 86 85 84 86 95 97 97 95 88 86 90 97 94 93
37 41 43 45 49 47 50 82 83 96 92 77 39 33 32 30 29 26 33 33 42 50 59 62 68 80 95 76 70 84 46 62 85 93 91 86 95 92 90 89 78 81 78 81 87 95 93
28 36 41 44 42 51 51 60 84 91 97 84 44 32 31 31 29 29 33 36 41 48 57 61 65 76 75 56 49 53 71 93 96 91 82 91 97 91 88 87 83 80 93 91 90 86 92
17 24 30 40 43 46 52 54 77 87 98 88 49 32 31 32 31 34 35 38 39 47 61 63 64 73 61 67 70 80 93 95 94 88 79 81 91 92 92 90 80 80 83 89 92 91 89
19 19 20 27 40 46 49 51 69 82 97 89 52 31 30 33 35 36 37 37 37 48 67 67 63 76 70 75 82 81 90 98 95 93 90 93 91 91 88 91 74 70 73 78 82 91 87
24 21 21 23 34 50 47 52 68 68 93 89 59 31 30 35 37 37 37 36 38 56 69 64 63 67 75 78 75 87 87 93 95 94 91 98 95 84 88 88 75 72 67 77 77 82 79
29 27 26 22 25 46 52 54 54 72 86 90 64 31 31 38 39 38 36 36 45 62 62 65 61 68 72 71 80 78 82 83 86 89 95 90 89 86 84 77 73 76 71 79 82 80 85
45 37 33 29 34 40 52 60 57 81 80 91 69 31 34 43 41 38 36 41 53 59 54 66 61 61 64 69 70 70 76 83 84 86 92 94 88 86 83 73 73 69 69 86 88 86 80
57 58 45 38 47 41 58 62 65 77 82 93 68 34 37 45 41 38 39 43 52 52 56 61 57 58 67 64 69 72 74 73 76 78 85 82 89 85 80 78 74 72 65 72 75 76 68
65 70 59 64 54 46 65 66 79 83 87 92 67 41 41 44 40 41 41 46 45 51 46 59 61 60 66 66 68 71 70 71 73 77 80 81 87 82 80 76 74 70 72 62 67 60 68
70 77 73 78 70 52 78 67 90 82 90 92 75 47 44 47 42 42 44 45 51 47 47 56 65 59 61 62 67 66 61 64 67 72 70 77 85 82 80 73 69 70 66 70 74 71 60
75 76 76 82 60 65 87 79 95 97 91 93 84 52 49 49 45 44 43 43 44 47 52 56 66 64 60 60 60 61 58 60 61 70 70 69 75 86 81 82 75 72 69 67 65 70 81
77 77 79 72 47 81 88 76 96 98 91 94 86 58 53 52 46 45 41 42 45 48 51 56 60 59 58 58 61 59 61 61 65 73 73 74 77 88 81 82 81 77 75 70 78 73 72
74 73 68 63 46 90 89 87 97 99 91 92 85 58 54 52 46 41 38 42 47 51 52 55 57 62 60 59 62 66 70 68 67 71 74 73 83 90 90 81 79 83 79 76 76 78 77
68 67 58 57 77 93 92 98 97 98 94 92 82 61 57 53 45 40 40 43 49 50 50 50 54 60 61 63 62 66 66 71 70 70 70 70 80 81 80 76 74 80 77 76 76 83 74
59 58 53 52 88 87 97 98 97 98 93 94 76 53 48 48 41 41 40 40 45 53 51 48 52 58 62 64 64 66 68 72 72 73 72 73 84 81 80 79 78 76 71 73 76 68 71
47 52 46 75 93 96 98 98 98 97 94 96 63 55 49 40 37 38 42 42 42 49 49 49 49 58 61 69 67 70 67 73 74 77 75 73 84 81 80 79 76 76 72 67 66 68 69
45 47 55 86 95 98 98 98 98 96 95 91 52 52 46 43 41 41 37 41 40 49 48 45 48 55 60 64 66 71 71 68 72 77 83 82 84 87 87 78 75 73 64 65 63 61 58
43 51 71 93 98 98 98 98 99 96 93 60 48 49 46 43 40 36 35 41 44 46 47 48 48 52 60 63 65 68 70 72 77 77 74 83 86 89 93 83 87 62 53 55 57 57 58
47 62 80 92 97 98 94 95 98 97 87 49 49 51 41 39 37 41 41 44 44 48 49 49 50 54 57 61 65 69 72 69 70 70 76 81 89 92 89 89 74 66 59 56 53 56 56
56 66 84 97 96 97 97 95 98 98 76 49 46 49 40 37 41 38 44 43 46 49 51 50 50 51 54 59 61 63 66 61 69 66 63 65 73 82 83 82 76 64 60 56 54 64 58
58 75 86 94 94 95 97 98 97 97 70 49 46 47 39 35 39 39 39 42 42 45 48 49 50 52 53 59 64 63 65 58 70 66 69 69 69 75 76 73 59 54 53 53 56 58 62
66 83 93 98 98 98 98 98 98 94 74 58 46 41 34 37 40 38 36 38 39 40 43 44 49 52 56 61 62 60 63 60 61 61 66 69 71 71 73 78 75 57 59 60 65 67 70
77 85 96 98 96 97 98 98 97 97 86 56 50 41 36 34 41 39 38 39 41 41 40 43 44 50 55 58 59 63 60 61 58 67 60 64 60 66 66 70 63 68 70 71 75 76 75

GFSGBSN_prec_cthk_078.txt.gz
RH
45 44 44 43 50 57 64 77 86 78 83 87 75 47 40 41 43 39 40 37 35 40 44 38 45 51 44 46 48 53 47 48 59 80 88 92 90 91 82 67 65 82 92 84 74 81 78
43 43 47 47 47 49 52 64 74 81 78 89 80 59 41 41 41 39 40 39 37 40 42 44 48 61 50 55 58 58 47 45 55 79 86 95 98 93 85 76 71 82 90 84 80 92 84
39 42 46 48 48 49 51 54 61 72 82 79 88 71 45 40 40 38 38 38 38 41 43 47 57 61 54 61 64 74 53 40 56 76 82 92 88 91 96 80 73 76 96 89 93 94 94
29 38 41 46 44 45 51 54 65 67 72 80 86 85 54 39 37 33 38 34 36 37 39 46 59 62 66 75 79 81 69 43 57 74 78 79 89 87 91 87 82 80 92 90 94 95 91
21 28 34 41 44 45 48 53 56 64 66 79 80 87 74 40 35 32 35 34 35 39 41 51 62 65 74 84 96 91 83 49 58 74 68 74 88 95 88 92 94 91 99 94 89 96 96
27 23 28 31 42 47 51 54 55 56 60 69 82 81 80 43 33 33 35 36 36 42 46 57 65 71 75 66 69 82 89 49 69 76 81 81 81 89 94 92 91 93 89 94 94 96 95
28 26 21 24 29 40 51 50 53 54 61 63 93 81 75 56 31 33 38 38 41 46 50 54 57 62 55 44 51 63 51 57 80 88 92 81 81 90 86 97 86 81 79 83 88 93 96
28 27 26 22 17 23 35 52 48 67 58 64 80 72 72 61 31 35 40 38 39 42 51 54 56 60 58 57 66 77 80 83 85 83 83 82 84 78 87 91 93 83 81 87 92 90 93
31 29 30 28 23 17 17 39 52 53 71 62 76 70 64 66 33 36 45 39 37 42 55 53 55 57 66 76 86 95 98 98 92 83 84 82 87 87 93 96 90 87 79 85 90 92 94
30 31 29 29 29 25 21 23 49 50 68 57 82 63 64 67 35 40 46 38 36 43 59 52 56 62 69 72 89 96 94 91 82 83 79 83 95 94 96 97 88 89 85 83 95 97 96
30 35 33 32 32 29 26 21 34 53 57 61 78 64 65 63 37 42 47 37 37 51 58 48 53 61 67 72 76 83 97 94 86 86 88 97 97 92 89 95 83 78 77 84 86 93 89
36 39 41 38 37 35 33 26 29 56 51 66 66 74 64 63 36 45 46 37 41 58 57 53 53 62 69 72 74 72 86 92 81 86 96 92 88 89 91 85 77 80 86 90 90 84 86
41 44 44 46 43 39 38 36 33 49 63 74 64 74 62 68 39 46 43 41 50 58 49 54 54 58 63 66 70 73 80 82 86 92 96 91 85 80 75 71 77 80 88 98 98 92 82
43 45 47 48 50 52 48 56 48 46 70 77 69 76 69 74 43 47 45 47 52 48 52 52 47 54 63 61 67 69 72 73 74 90 87 89 88 83 80 79 84 86 75 74 75 83 71
47 45 45 54 65 68 71 63 55 49 77 73 65 80 74 75 46 50 47 48 42 46 48 51 49 59 62 61 64 63 68 75 76 79 82 84 87 81 79 78 79 73 72 62 64 65 69
46 49 52 63 82 81 83 76 61 47 81 74 80 82 83 77 50 55 51 43 44 45 47 52 57 55 60 62 58 62 62 69 73 75 74 74 84 80 76 73 73 74 66 68 73 69 60
49 54 52 62 79 82 87 73 68 94 97 87 95 90 87 76 56 57 49 41 41 46 48 54 61 59 62 63 63 56 58 64 66 69 66 68 72 80 75 74 74 70 72 71 67 69 70
53 53 46 58 72 80 83 68 86 97 91 98 98 97 94 77 61 55 43 38 37 46 51 55 62 56 63 61 59 56 53 54 60 66 68 66 73 85 81 77 74 72 67 67 72 69 71
54 44 42 65 69 70 72 69 96 96 98 98 98 98 97 77 60 53 41 39 42 47 50 55 61 62 53 56 60 61 57 54 54 62 67 66 71 80 78 77 76 78 76 73 67 68 71
83 56 44 57 57 66 67 84 95 96 98 98 98 98 97 70 59 47 42 42 47 47 48 51 56 66 65 59 60 65 61 65 62 64 65 67 69 71 76 70 70 75 74 75 76 85 77
86 75 54 59 64 57 86 96 96 98 97 98 98 96 86 61 57 46 43 44 47 50 48 50 56 63 67 71 65 63 60 65 65 66 67 70 74 74 70 72 71 69 69 72 72 70 73
82 74 63 55 58 71 93 94 98 98 98 98 98 95 90 54 47 46 48 46 47 48 47 46 49 58 63 63 61 66 62 65 67 65 72 72 81 76 77 73 73 72 69 66 66 69 70
73 71 67 58 67 92 97 97 98 98 98 98 98 95 59 54 47 46 42 43 43 45 48 46 48 55 60 59 61 62 60 60 67 71 73 69 72 73 79 74 70 70 66 65 65 62 62
64 66 64 66 76 96 97 97 98 98 98 98 98 85 55 58 43 41 40 42 42 46 47 50 49 53 54 59 62 63 67 68 71 69 72 78 80 82 82 73 78 60 57 56 57 59 61
64 63 70 73 87 97 97 97 94 97 98 98 91 69 52 54 43 44 41 45 48 52 53 51 52 52 55 59 72 75 76 73 73 71 72 75 79 81 79 81 68 62 60 58 56 59 58
62 61 69 75 92 96 95 96 97 95 97 96 87 69 53 47 44 43 46 46 49 52 55 55 55 55 55 60 62 69 72 65 73 71 68 73 74 74 82 79 72 55 60 63 61 69 66
55 61 68 84 95 96 97 96 97 98 96 83 64 64 56 42 44 45 46 47 47 48 54 56 56 57 56 59 64 64 66 59 66 66 64 67 69 70 69 71 61 51 49 47 52 51 61
55 61 72 86 96 95 95 97 97 98 97 77 61 65 49 46 47 44 45 46 43 44 48 52 54 54 57 59 60 59 61 58 61 60 63 65 68 70 70 74 69 50 50 49 52 56 57
50 64 78 89 97 97 97 97 97 98 95 66 56 62 52 44 47 46 45 44 43 42 43 47 45 49 50 53 55 59 57 57 58 66 59 64 57 60 61 59 53 52 54 55 55 57 60

GFSGBSN_prec_cthk_081.txt.gz
RH
33 35 37 41 44 44 46 52 56 68 62 76 71 75 71 77 66 45 40 41 42 46 45 49 44 43 52 52 44 52 55 47 41 49 77 93 94 91 93 83 81 74 58 52 71 96 90
34 30 30 32 34 38 42 48 52 55 60 77 70 70 76 75 71 57 39 37 42 45 45 48 49 51 58 55 56 63 69 55 39 53 73 90 93 93 93 89 77 63 59 56 78 97 95
25 28 32 33 32 32 31 38 47 55 66 71 72 79 74 79 73 64 44 37 38 47 46 46 47 56 56 58 65 72 75 68 42 56 73 89 97 92 95 90 72 67 64 66 85 95 92
28 27 25 27 32 32 30 33 42 50 64 65 73 69 81 85 74 64 51 38 35 43 42 42 49 56 57 63 72 82 89 76 45 58 74 87 95 94 95 87 79 79 72 84 97 94 95
37 33 30 27 27 29 32 28 35 44 65 57 69 68 86 88 70 63 51 39 36 44 42 44 53 54 53 51 57 67 80 73 52 68 78 85 98 96 97 89 88 82 78 90 98 93 92
37 36 35 38 36 28 24 27 25 32 41 68 61 63 87 89 72 60 50 47 38 47 45 48 52 52 52 51 51 73 73 67 58 76 81 83 89 94 96 88 86 87 88 96 96 92 92
35 35 33 38 40 39 31 20 20 23 33 38 65 75 77 75 72 57 55 53 44 50 47 45 46 49 59 59 48 45 45 55 73 83 82 80 87 92 90 90 88 89 83 98 97 92 94
37 34 35 37 38 39 38 30 20 19 29 36 54 74 77 89 79 62 57 55 42 46 44 45 47 52 65 69 74 68 74 82 82 84 81 82 83 87 80 85 93 86 87 97 97 94 94
36 35 36 37 38 38 38 35 29 20 19 33 43 67 84 82 78 65 61 56 43 46 48 47 48 54 64 77 85 95 94 86 80 81 83 77 78 79 82 91 95 88 81 88 86 94 92
37 38 38 37 33 37 37 38 36 29 19 34 49 56 76 73 72 71 63 56 44 46 55 46 49 55 63 75 92 94 91 87 79 81 80 83 83 81 83 92 94 92 77 76 84 92 95
36 35 34 34 36 34 35 36 37 34 28 29 47 55 77 64 80 77 64 54 45 48 57 44 52 56 64 68 81 89 87 89 88 83 82 93 92 92 97 96 88 92 86 83 80 92 97
45 45 45 43 40 32 31 33 36 36 36 32 47 59 71 65 68 78 70 56 49 54 56 51 51 58 64 67 76 79 83 88 83 88 90 97 94 93 95 90 86 87 89 92 87 94 97
52 48 42 41 37 32 35 35 37 41 39 39 46 63 75 66 73 73 74 63 53 58 44 51 53 57 61 64 71 77 78 83 88 94 97 96 94 91 92 90 90 88 87 98 97 93 96
53 45 36 34 37 39 38 38 42 44 40 48 46 66 66 75 72 81 74 65 59 43 50 47 49 55 58 62 65 68 77 80 84 85 87 93 93 91 86 92 92 93 87 86 92 85 77
54 46 38 35 40 49 45 50 61 55 54 48 55 68 75 73 85 80 75 64 45 41 42 51 48 54 57 63 64 69 73 73 81 80 78 83 90 84 87 86 84 97 89 69 69 74 80
51 45 44 48 48 53 46 59 82 85 73 46 51 77 86 80 79 86 82 54 44 38 42 49 50 52 57 59 62 66 66 70 74 74 70 71 83 82 79 81 86 76 72 72 70 73 66
47 50 60 71 59 43 54 74 85 96 85 84 77 87 91 77 91 95 84 51 41 40 43 49 55 55 55 58 55 57 63 67 69 69 66 65 68 74 73 78 79 69 67 65 66 69 70
45 57 77 94 80 51 65 75 87 94 81 84 98 97 96 88 95 90 79 42 39 45 47 48 56 56 57 57 55 57 64 63 64 63 68 65 70 79 73 69 72 72 68 68 69 67 72
50 63 91 95 86 61 69 76 85 88 83 97 95 98 92 93 97 95 63 41 42 50 51 53 57 53 57 58 60 54 53 54 60 63 66 63 69 78 74 67 65 68 65 65 66 67 70
58 74 92 94 87 72 71 83 88 81 95 98 97 91 97 97 98 90 50 43 46 50 54 55 58 58 59 60 61 60 56 56 56 57 61 63 68 66 73 63 69 70 68 69 66 70 65
69 82 90 87 84 72 72 82 85 90 98 99 92 97 97 97 98 79 47 40 45 54 54 57 60 59 58 59 60 61 58 60 61 60 61 61 67 68 67 67 68 68 70 70 72 70 71
75 81 85 81 82 76 76 81 88 96 98 97 97 97 98 98 86 64 50 42 45 52 52 54 57 59 60 62 55 63 58 60 61 60 60 62 71 64 68 66 67 67 69 72 73 72 68
75 82 76 78 76 76 80 89 92 97 98 98 97 98 97 97 66 56 45 39 44 48 52 53 56 61 60 62 61 58 58 59 61 61 62 63 67 67 70 64 61 63 62 63 64 61 60
71 72 66 71 72 76 88 94 96 95 98 98 98 97 97 88 64 49 42 44 45 45 50 54 56 57 58 64 61 63 66 67 65 67 65 67 66 66 69 62 70 55 52 53 56 56 57
65 62 59 66 74 87 93 94 94 97 97 98 98 96 92 75 55 49 47 48 51 48 54 56 56 58 59 61 67 71 74 70 64 66 68 70 73 77 75 77 64 55 50 50 51 56 53
64 62 59 68 91 95 96 98 95 97 98 97 97 94 83 65 52 48 51 50 53 53 55 57 59 59 59 64 66 67 70 65 70 66 66 72 73 75 79 76 70 52 49 50 52 57 56
59 54 53 76 92 95 95 97 98 97 97 96 94 90 74 55 49 48 52 53 51 53 55 57 58 59 59 61 66 68 64 58 67 68 70 73 72 76 76 74 60 47 47 45 49 42 49
49 48 60 79 89 91 95 95 95 96 97 96 96 90 69 49 49 49 50 50 50 50 52 53 55 56 60 61 60 60 57 58 58 55 58 59 63 62 68 71 61 45 47 47 44 49 52
41 48 65 83 86 94 91 94 96 97 96 97 90 84 66 44 51 54 53 52 51 49 50 52 48 53 54 56 54 56 54 53 55 59 55 59 54 58 58 53 48 48 49 49 51 52 54

GFSGBSN_prec_cthk_084.txt.gz
RH
26 25 25 32 34 34 34 37 36 42 43 45 52 66 81 78 88 75 77 68 52 58 51 47 57 54 51 51 47 47 51 55 54 46 46 63 87 97 96 75 77 86 86 66 54 56 73
29 28 26 25 25 29 31 34 35 33 38 44 48 57 68 71 77 88 84 69 54 55 54 49 55 58 59 54 48 52 56 66 63 47 50 72 88 91 95 80 86 86 85 78 59 64 75
31 31 29 27 26 26 24 26 37 38 37 41 49 51 56 72 82 97 84 74 59 52 57 52 55 59 56 51 51 55 62 75 76 52 54 77 89 97 92 84 79 92 89 79 68 62 83
37 37 36 34 36 33 27 26 26 37 41 40 44 50 53 60 65 92 90 72 66 58 56 54 55 58 52 44 42 52 62 72 80 52 57 74 91 98 93 76 81 89 94 85 76 70 83
33 36 37 36 36 35 36 34 27 29 37 38 35 42 49 62 60 75 76 65 64 59 57 56 59 54 50 46 42 57 61 66 76 52 74 82 93 96 93 97 86 84 94 84 71 75 77
38 40 39 37 36 36 37 38 37 31 31 34 35 36 49 52 62 69 84 78 70 59 60 58 59 54 55 56 45 45 55 63 56 64 80 90 96 93 94 98 88 95 97 84 72 71 79
46 44 42 39 39 39 39 39 34 34 33 29 32 38 45 49 63 66 69 84 76 67 59 54 49 46 57 64 63 49 44 56 70 81 86 81 94 99 98 93 90 85 89 87 77 85 94
50 47 44 44 44 43 44 44 43 45 38 34 29 35 47 52 57 65 72 84 75 64 55 56 47 47 61 68 78 79 82 76 80 83 78 79 87 90 95 97 90 91 86 87 82 88 95
54 51 48 48 49 49 48 46 45 42 44 35 31 41 52 52 55 64 66 67 76 66 59 57 48 52 62 72 83 85 85 75 78 78 76 74 85 86 82 87 91 84 79 77 82 94 96
54 48 46 48 46 45 48 47 47 44 39 39 33 38 49 53 56 58 68 78 73 68 67 58 49 54 61 70 82 83 80 79 80 73 74 80 78 79 82 90 91 92 81 78 85 85 98
59 53 51 51 50 50 43 40 37 35 34 33 36 32 48 58 55 65 66 69 71 71 75 52 49 53 61 68 73 86 92 84 83 79 84 84 84 82 80 85 94 94 87 81 80 83 87
59 61 59 58 53 51 49 46 44 35 34 30 35 38 52 57 63 65 69 76 79 75 70 56 50 55 61 68 75 83 90 93 93 90 91 94 89 92 91 94 91 89 83 77 81 87 96
64 67 62 59 54 45 41 43 40 36 32 31 32 43 58 60 67 66 73 81 84 82 58 53 51 54 58 64 71 76 79 85 96 96 96 94 94 94 94 93 90 90 92 93 93 96 96
71 66 58 49 47 47 50 50 45 44 37 37 43 37 57 56 67 71 78 77 84 64 64 45 48 53 54 65 67 71 78 84 84 90 93 92 92 95 93 95 94 92 90 92 89 88 90
73 57 54 52 52 58 75 73 55 40 50 81 71 50 63 61 65 76 78 84 74 64 53 45 48 53 56 64 69 72 75 81 81 79 81 89 90 84 89 91 91 92 87 73 76 74 81
70 63 50 43 56 79 89 86 56 65 86 98 82 70 67 64 70 78 85 85 74 69 47 42 48 50 58 64 68 71 71 75 77 77 73 75 89 85 83 85 92 89 74 72 74 75 66
59 57 52 58 69 89 94 84 77 82 92 98 87 75 66 68 77 88 81 85 80 74 45 41 51 53 52 62 63 66 69 71 72 70 67 67 70 77 77 95 89 77 70 65 66 69 69
53 48 61 63 80 92 91 82 81 85 97 98 88 80 66 78 85 87 84 83 81 69 45 42 51 52 58 62 60 61 66 66 66 63 66 65 70 79 78 73 73 74 64 56 58 63 66
51 62 67 78 89 90 90 82 85 90 98 96 86 78 79 83 91 91 90 92 86 64 45 45 55 52 57 58 56 56 63 62 61 60 61 58 68 77 71 63 62 63 60 58 58 59 65
56 68 74 82 91 88 88 82 86 90 94 90 84 80 81 85 92 93 98 96 82 53 46 47 56 56 56 57 54 55 55 55 56 55 56 58 64 64 72 63 66 66 61 57 59 65 61
61 69 78 87 84 92 86 88 88 92 95 88 84 84 90 91 92 96 98 90 64 52 50 49 58 59 55 61 63 60 56 54 53 53 57 57 64 66 70 71 68 66 64 63 63 56 55
64 70 75 77 84 91 89 88 87 93 91 89 88 93 92 92 94 97 96 79 54 48 47 52 58 61 58 61 59 63 59 54 52 59 60 59 68 64 68 63 61 60 63 65 63 62 59
66 72 68 69 77 84 85 91 87 88 88 89 95 92 93 98 98 98 93 61 50 52 50 53 61 62 67 65 64 60 56 59 57 57 59 60 64 67 69 64 61 58 55 56 56 54 55
62 69 66 70 73 76 89 86 82 83 87 92 94 95 97 97 97 85 62 55 51 57 54 55 56 61 64 67 63 59 59 60 61 61 59 60 63 67 70 62 64 51 49 49 51 53 55
60 57 59 69 75 83 83 78 80 88 92 91 96 97 96 97 87 60 56 51 55 62 61 58 58 60 66 65 67 67 70 63 59 66 67 64 67 73 70 67 53 49 52 49 49 47 52
58 46 45 63 75 82 86 86 95 95 96 97 97 95 93 90 71 59 54 56 60 61 59 62 61 58 61 67 65 67 68 64 66 62 68 67 66 68 70 72 64 50 50 48 48 51 55
46 37 46 64 82 86 92 95 94 95 97 97 96 92 89 84 62 53 54 57 59 58 62 62 60 61 61 64 66 63 62 58 64 65 68 68 69 70 71 72 58 49 48 46 49 43 48
39 36 52 71 81 86 91 96 95 94 94 96 94 88 82 59 56 52 51 52 56 56 57 58 60 60 61 63 64 62 61 59 56 55 58 61 64 61 68 67 57 41 42 44 42 45 47
33 36 56 78 86 92 94 95 92 92 93 95 92 88 79 56 54 54 52 52 54 55 57 58 54 56 56 56 56 59 59 58 55 55 51 52 48 53 52 47 42 42 43 43 44 47 48

GFSGBSN_prec_cthk_087.txt.gz
RH
32 32 30 29 29 29 27 25 25 28 31 32 36 40 60 56 58 57 63 73 83 79 71 60 58 68 65 62 52 50 44 46 48 53 51 45 57 67 74 81 88 74 55 68 92 77 66
36 37 38 39 38 34 33 31 30 26 26 31 38 42 51 56 52 58 65 63 75 83 67 59 63 71 66 61 50 43 43 52 55 63 55 46 56 76 85 85 91 80 69 78 90 86 71
43 44 41 41 42 41 36 36 36 32 26 24 35 43 46 52 55 61 58 60 58 58 66 68 68 72 63 55 46 38 44 53 56 70 71 44 63 82 89 96 89 82 84 77 82 82 74
46 46 46 45 46 45 42 40 35 32 33 30 23 36 44 43 54 54 60 60 52 59 74 68 66 69 61 52 47 41 47 60 59 70 63 54 71 83 98 93 92 83 93 97 93 78 75
51 52 53 51 50 50 48 43 38 36 35 33 30 26 36 38 52 57 58 55 60 64 67 69 70 76 58 56 55 42 48 59 57 62 52 72 79 94 98 91 92 89 88 89 86 80 70
58 58 57 56 55 53 50 46 43 41 45 45 35 30 33 35 50 60 61 58 59 59 71 74 76 74 54 57 62 52 47 52 54 52 66 81 92 94 97 88 87 89 95 91 84 79 65
64 65 62 60 59 57 54 50 48 49 46 50 42 36 44 41 52 57 62 63 65 62 66 60 69 61 51 64 72 69 65 60 64 71 81 83 91 98 98 93 92 77 82 88 79 76 65
71 70 67 64 65 62 59 59 56 53 51 48 44 41 48 61 67 56 66 62 58 61 57 64 69 58 54 65 75 79 72 73 75 73 74 84 89 92 97 95 88 81 78 92 87 78 70
75 74 73 71 67 66 64 62 58 57 55 52 46 48 43 53 62 65 68 61 57 58 67 67 68 53 57 64 78 77 72 72 71 73 74 86 81 92 93 98 89 87 84 85 80 82 87
80 80 78 73 74 71 66 55 51 51 49 47 41 43 47 52 56 59 62 60 65 62 65 67 65 53 56 66 75 80 75 72 70 69 74 84 77 86 92 97 85 81 78 84 90 86 84
85 82 79 78 72 63 56 48 41 35 31 26 34 36 42 52 57 60 65 70 68 65 78 71 66 53 61 68 72 76 79 79 75 80 87 85 84 82 85 87 88 80 76 80 82 83 79
86 83 83 70 63 56 49 53 58 52 35 28 26 29 39 58 59 71 68 70 71 75 81 74 64 56 63 72 74 87 92 97 94 96 95 95 93 87 91 93 94 87 82 80 80 81 85
89 87 79 66 59 45 52 62 69 70 62 54 50 32 37 50 55 70 76 71 79 73 66 76 64 56 59 68 74 78 85 94 99 96 99 98 98 95 93 94 91 89 83 92 89 88 92
89 84 69 64 59 54 59 76 85 89 72 57 55 51 43 43 58 68 79 72 80 60 74 66 56 57 58 66 68 72 78 94 98 97 94 96 98 97 90 93 93 88 80 79 80 86 93
89 82 61 57 60 63 71 87 92 85 78 93 98 82 54 39 56 69 78 73 71 71 74 65 53 55 58 65 66 72 82 83 85 85 81 89 93 93 93 92 89 80 75 66 69 71 76
92 76 55 58 62 73 82 93 90 85 87 97 98 90 67 51 64 77 76 75 69 68 73 63 50 50 58 65 67 72 80 80 78 78 77 78 88 91 94 89 84 79 76 74 73 75 76
95 67 52 64 72 86 93 90 90 86 95 98 94 89 77 69 68 78 77 75 70 85 78 59 51 51 55 63 62 66 71 72 73 69 70 69 72 88 91 94 88 76 72 70 70 70 69
97 59 56 68 79 87 92 89 89 86 94 99 94 92 88 84 77 78 78 70 88 91 80 60 53 49 54 60 59 62 72 70 69 65 67 66 73 80 83 82 75 71 67 63 64 65 67
91 44 63 70 85 87 87 91 86 88 95 94 94 90 88 78 79 78 79 88 94 94 81 58 56 50 52 57 56 62 70 69 66 64 61 56 66 73 70 65 61 62 63 58 56 58 61
64 45 68 75 86 86 86 88 82 88 95 96 91 91 82 79 81 82 85 98 97 89 77 58 57 52 53 56 54 61 69 66 62 61 59 54 59 56 61 59 63 63 60 57 54 57 54
30 54 70 77 85 87 84 83 82 86 91 91 84 87 82 79 80 85 97 98 97 91 69 58 60 58 55 61 59 62 63 61 57 54 58 58 66 67 67 66 63 63 60 56 56 51 49
33 66 69 72 83 88 84 81 82 83 87 84 80 80 81 82 84 98 97 98 92 80 62 59 66 64 55 59 60 60 55 51 50 55 56 59 70 64 64 61 61 59 63 63 61 56 54
43 67 62 62 70 77 76 78 80 79 81 81 82 81 86 86 98 98 97 94 79 61 60 58 63 66 61 60 58 56 53 52 52 53 57 60 61 64 68 61 56 56 55 59 58 57 56
51 59 50 56 58 63 74 74 74 69 71 73 76 77 90 94 97 96 92 91 65 60 60 62 64 66 63 61 61 61 59 59 57 57 54 57 61 62 67 59 60 49 49 49 50 50 52
53 47 50 60 72 70 71 71 66 67 69 72 74 88 95 97 95 92 75 67 59 61 64 64 65 65 68 65 64 64 64 56 57 62 58 53 59 64 63 63 48 43 44 43 43 44 46
48 39 51 64 78 75 70 68 64 71 74 81 88 95 95 86 85 68 54 53 62 67 65 67 64 65 67 68 65 63 65 61 62 59 59 61 58 59 62 64 55 43 43 41 41 44 44
45 34 51 67 78 78 75 72 69 72 80 88 91 90 86 86 78 58 51 53 56 64 66 65 64 65 67 68 64 60 62 59 63 62 66 64 61 63 61 59 54 46 44 42 43 35 39
40 30 50 65 78 82 81 83 79 79 85 87 87 80 79 71 61 54 54 61 57 57 57 59 63 63 62 73 69 59 57 56 56 54 59 59 61 61 60 61 53 39 40 40 36 37 38
34 30 45 63 74 80 80 81 80 81 85 85 82 79 73 59 52 53 55 59 59 58 58 59 60 61 61 60 55 58 57 58 54 54 51 53 46 46 46 42 35 36 36 36 36 38 40

GFSGBSN_prec_cthk_093.txt.gz
RH
51 52 56 55 58 58 59 58 58 54 52 57 52 54 43 44 49 47 44 62 79 67 54 54 50 51 51 51 46 48 50 49 46 43 45 49 50 52 51 48 51 56 48 49 47 54 49
57 59 60 63 65 66 64 62 63 62 59 60 59 59 54 45 46 51 55 63 77 64 60 55 53 56 57 48 50 53 44 47 44 44 45 50 52 53 53 52 56 53 58 62 62 60 58
65 65 67 68 70 70 68 67 65 63 61 60 60 56 56 54 49 46 56 63 72 60 75 58 55 62 55 48 49 46 48 48 43 45 48 50 53 57 55 56 58 73 79 77 70 66 66
70 73 76 74 73 71 70 69 67 64 63 65 65 58 52 51 49 45 43 50 61 56 65 53 61 60 56 48 50 53 56 55 47 47 52 53 58 64 63 69 75 80 79 81 70 76 74
77 79 79 79 77 75 77 75 73 70 68 66 65 60 52 51 50 54 43 51 69 79 76 74 76 61 59 52 55 56 63 56 51 52 54 56 65 71 83 86 90 84 83 78 74 84 76
81 82 83 80 75 75 76 74 68 68 62 55 54 53 45 47 59 66 71 70 82 68 75 70 68 69 60 62 57 60 62 54 52 47 56 59 70 79 86 90 86 91 86 75 75 81 86
82 84 84 79 77 75 71 72 67 64 65 67 63 40 33 40 75 87 94 99 89 87 88 78 65 60 63 61 53 64 65 58 60 61 64 72 83 85 85 83 82 81 87 82 75 75 81
85 84 84 77 75 77 74 73 72 62 61 59 64 57 23 27 48 77 95 91 83 70 73 70 67 76 66 63 56 66 62 63 64 68 72 82 84 80 87 85 84 82 76 77 94 87 90
88 87 84 82 83 86 78 73 74 71 56 66 72 71 51 21 23 56 92 99 99 97 80 64 60 71 74 60 62 67 64 63 62 64 66 77 79 88 85 82 85 77 77 91 91 81 80
88 87 87 90 95 96 79 70 78 80 72 76 84 83 68 43 28 39 68 96 99 91 84 68 69 74 67 58 69 70 63 62 61 64 72 77 76 83 89 81 80 82 79 91 82 90 86
95 95 98 99 98 92 81 81 84 79 79 87 94 91 79 61 42 39 63 78 98 82 83 76 74 74 66 66 72 67 66 64 68 76 81 88 84 79 76 86 81 81 80 95 86 86 98
98 99 99 98 96 89 87 88 81 82 85 93 89 89 81 63 53 40 71 88 85 92 89 80 79 76 61 71 80 81 82 90 90 92 89 86 92 87 76 76 82 83 90 90 88 83 95
97 99 98 98 91 82 94 85 80 85 89 87 82 89 93 72 49 72 96 97 98 97 77 79 80 63 68 80 82 85 92 97 93 93 91 96 98 98 97 86 81 90 88 94 97 91 83
99 98 99 94 82 90 81 77 78 87 86 82 84 91 91 74 57 73 96 99 97 82 72 82 72 60 76 78 77 80 87 98 96 96 92 96 95 98 92 88 95 95 85 93 91 84 74
96 98 91 83 84 72 70 75 84 88 87 90 97 98 83 62 64 73 95 93 95 80 79 80 66 64 74 73 76 87 97 96 94 96 97 97 95 96 92 87 85 79 78 71 76 69 68
90 88 72 51 67 61 78 81 85 87 94 98 98 84 62 50 65 82 88 98 87 88 84 71 65 61 69 69 81 86 88 83 84 85 85 82 94 90 85 82 79 78 68 78 73 86 72
83 61 36 62 55 72 77 79 82 92 96 91 69 57 57 58 59 90 90 95 96 91 88 75 57 61 63 68 75 78 75 75 76 75 78 77 80 87 86 81 76 73 65 60 59 63 64
70 31 49 53 59 71 72 75 81 94 84 63 59 64 57 52 74 88 88 84 91 91 84 74 57 59 64 64 73 74 75 75 70 66 72 78 80 86 79 72 66 68 60 57 61 57 57
44 36 53 43 58 60 65 69 79 86 80 71 68 67 72 81 80 82 83 84 91 94 90 74 62 59 62 63 69 70 69 68 64 62 61 66 75 79 68 65 62 62 58 55 51 55 60
30 36 43 44 52 54 60 60 64 67 65 62 68 80 82 77 75 75 81 87 97 93 84 69 64 57 58 59 61 68 67 64 63 60 58 57 63 67 68 72 67 66 58 48 51 60 52
27 37 35 38 41 47 53 53 56 55 56 55 60 71 73 77 75 70 77 91 92 96 71 66 63 59 58 60 58 67 62 59 57 56 52 51 57 61 54 55 56 58 57 51 50 44 51
24 34 32 36 40 47 53 54 51 47 47 48 55 65 69 70 68 79 90 94 96 74 69 68 67 60 58 56 55 57 53 48 50 52 53 53 60 56 53 49 49 52 51 50 47 44 44
21 28 29 35 39 42 45 46 48 48 46 52 57 61 66 70 82 89 89 93 87 62 65 68 69 62 62 58 54 49 44 39 40 48 50 50 52 56 54 46 44 44 46 47 47 45 42
24 29 31 36 39 40 44 45 45 48 47 53 59 61 73 83 87 90 90 90 62 63 65 67 64 62 60 58 54 50 43 42 41 41 40 42 46 51 54 47 54 41 40 42 43 42 42
21 31 36 43 48 48 47 46 43 49 52 52 63 75 80 80 77 65 73 60 54 59 63 64 64 62 59 56 55 50 46 42 43 43 43 43 42 47 50 41 35 35 36 35 36 35 35
16 24 31 42 46 50 48 49 46 46 52 58 63 70 76 70 53 48 56 51 54 58 61 63 62 59 57 53 50 53 50 46 45 46 42 40 40 40 41 44 35 36 33 32 32 33 34
17 16 24 39 47 50 51 51 49 51 56 61 62 66 65 58 51 44 44 49 54 56 61 60 61 57 55 55 49 47 48 46 46 44 45 44 42 43 40 42 34 33 32 31 32 37 32
19 17 15 37 50 51 52 51 51 54 57 61 62 60 54 52 49 42 43 49 52 51 54 58 61 56 59 56 52 46 42 44 42 42 46 43 43 41 39 40 41 32 33 33 34 32 31
20 20 12 36 46 48 54 53 52 57 61 60 58 54 52 49 45 43 47 47 48 49 53 55 58 57 57 59 52 48 45 44 42 40 42 43 40 41 39 38 34 31 32 31 29 29 30

GFSGBSN_prec_cthk_099.txt.gz
RH
68 71 74 78 80 81 80 81 79 79 76 75 74 73 72 72 72 67 65 65 66 67 77 96 98 93 88 74 52 45 45 44 43 43 43 42 39 43 45 41 44 48 42 44 44 43 40
72 76 82 83 83 84 84 82 85 80 79 76 70 68 62 58 52 50 50 50 57 72 80 95 96 96 91 84 60 49 56 49 43 42 42 41 43 46 49 44 44 41 40 38 36 34 36
79 83 85 85 86 85 88 88 87 85 82 77 67 63 57 45 42 33 32 39 46 53 79 84 88 98 95 90 63 59 56 50 44 48 47 46 50 50 51 48 42 43 42 37 37 41 46
88 89 89 90 94 95 94 89 89 84 80 78 68 62 60 59 48 32 27 38 46 40 72 77 98 91 96 82 70 58 55 50 48 55 55 54 54 53 52 49 47 50 54 58 47 49 53
88 90 94 97 97 99 98 97 90 89 84 81 78 65 58 61 52 35 23 48 49 46 80 86 84 96 97 78 76 59 58 52 61 66 60 55 53 56 54 59 62 65 66 65 55 56 62
84 86 94 98 96 98 98 98 98 96 90 87 88 79 67 66 56 40 30 62 72 65 82 98 95 99 84 70 66 66 59 63 66 64 59 59 57 55 57 64 70 67 72 70 62 60 69
81 86 96 98 96 97 96 98 98 95 95 88 85 80 74 67 59 45 35 86 94 78 76 96 86 76 77 81 65 60 65 66 66 65 61 55 58 59 61 68 70 72 71 68 68 67 74
78 85 82 81 85 88 92 96 98 97 94 88 84 73 67 66 61 59 45 95 98 96 94 90 96 95 84 79 68 70 66 66 66 65 58 68 70 65 70 73 77 79 77 74 72 73 82
76 62 67 62 54 63 84 95 95 92 87 86 84 84 72 70 71 62 56 92 97 98 93 98 98 93 88 75 75 75 69 69 62 60 64 63 59 70 76 77 80 80 78 84 83 76 79
65 58 38 36 46 58 65 75 79 81 78 81 80 72 74 69 67 50 63 94 98 98 98 98 98 97 82 72 81 73 75 62 59 59 59 65 66 72 69 74 82 80 78 91 87 93 96
58 45 28 39 57 67 69 79 79 77 76 75 74 81 76 69 58 51 64 81 97 98 97 96 89 86 75 82 76 76 66 60 60 61 73 84 83 82 86 80 76 79 84 91 93 95 98
48 31 30 36 51 68 84 92 88 88 87 76 82 86 71 58 48 52 72 81 92 98 97 96 89 85 88 82 77 67 66 67 73 80 82 82 78 77 74 72 76 78 83 88 93 97 98
32 30 30 37 49 56 68 79 89 98 98 89 77 60 52 45 43 59 79 88 95 96 99 92 91 86 73 74 72 75 87 88 86 88 89 91 90 81 81 82 82 88 94 97 97 98 98
24 25 32 40 47 51 56 62 69 71 68 53 46 44 42 45 61 67 78 93 96 98 94 87 82 79 87 76 83 89 97 94 89 91 97 95 92 86 83 85 89 91 96 98 97 97 97
20 21 30 36 40 46 48 55 57 52 48 43 41 41 48 60 66 75 83 92 98 98 91 83 84 94 90 80 86 93 97 99 92 90 95 97 95 88 84 84 88 92 98 94 98 99 97
17 19 28 34 36 41 44 45 47 48 44 42 45 49 57 59 71 75 80 89 94 93 88 80 85 82 81 88 97 98 98 96 95 89 89 92 95 87 82 85 84 86 83 91 94 96 96
15 18 25 32 30 35 40 39 36 35 35 39 42 45 57 61 67 73 80 88 91 79 74 78 79 78 83 91 94 94 90 85 82 81 87 94 93 83 82 78 77 77 79 79 78 83 93
14 17 21 30 30 33 36 37 38 35 34 41 45 54 64 67 69 76 80 81 80 74 70 75 71 71 76 76 77 77 80 82 81 80 85 81 83 87 74 68 67 70 71 72 79 79 84
12 15 20 24 28 33 35 35 35 35 40 43 46 52 60 66 76 80 78 78 79 75 63 67 67 69 69 67 73 69 68 72 72 75 79 76 78 86 77 67 59 65 62 64 68 75 80
12 14 18 24 28 30 34 37 39 41 46 50 53 61 68 74 80 82 83 84 83 70 62 64 63 61 61 66 63 63 62 62 63 67 67 64 66 68 75 67 66 63 59 58 63 78 80
19 14 16 24 27 31 35 36 39 44 49 53 58 64 71 81 87 87 86 86 85 74 62 61 58 58 56 60 58 58 57 58 56 56 55 54 61 61 57 57 56 59 58 57 60 59 72
15 20 17 23 30 32 35 38 39 40 46 52 55 60 58 67 77 78 74 77 66 62 61 61 61 57 55 57 56 55 50 50 53 50 49 51 60 58 54 52 51 52 52 52 54 54 57
17 14 19 19 31 33 35 37 42 41 42 51 58 57 57 55 61 68 65 64 64 63 58 60 59 53 52 52 48 45 41 40 41 43 44 45 52 60 58 51 50 49 49 50 51 51 48
28 10 17 18 29 35 37 39 40 41 43 46 52 53 51 47 51 54 55 54 54 58 58 55 54 50 49 45 42 41 39 38 36 38 38 41 43 49 56 56 56 47 42 44 46 46 49
37 13 14 14 27 35 42 42 41 42 42 44 47 48 46 41 45 49 46 47 49 53 53 53 50 50 50 46 45 44 43 38 37 35 34 36 39 45 50 53 40 39 39 40 40 40 41
46 18 16 11 25 36 41 43 42 42 46 46 48 47 38 43 40 46 45 42 42 50 51 49 47 47 46 48 46 46 49 39 39 37 36 34 35 42 43 46 40 38 33 33 33 39 33
52 24 19 14 22 33 40 44 44 45 49 50 48 43 38 39 40 42 44 44 43 47 49 47 46 42 43 49 47 46 48 39 44 39 40 39 40 44 46 46 41 35 33 32 38 37 33
59 31 23 18 20 28 37 43 46 48 53 52 48 39 35 37 38 38 40 42 44 46 47 45 44 42 45 47 48 46 41 40 38 36 37 39 41 44 42 44 43 32 33 35 35 33 32
63 39 27 21 23 27 31 40 46 49 50 51 51 46 40 37 34 35 37 40 42 45 46 46 48 49 48 49 47 45 43 42 40 41 37 37 36 40 39 38 33 30 30 31 32 32 31

GFSGBSN_prec_cthk_102.txt.gz
RH
63 64 68 71 79 82 89 93 94 92 93 91 89 88 84 78 73 68 60 56 56 61 76 75 86 98 98 95 86 71 58 55 47 42 42 40 40 40 41 37 37 39 38 37 39 38 36
62 65 69 76 85 91 97 97 97 97 95 92 92 87 81 75 68 61 55 40 41 42 53 70 84 97 98 96 90 81 65 59 54 46 44 44 39 39 42 41 41 39 39 38 36 35 36
55 63 70 80 86 94 97 98 95 98 98 95 92 85 76 72 69 58 45 30 32 38 39 62 75 86 86 96 94 92 77 64 56 46 44 46 44 44 45 45 45 44 43 39 34 32 38
60 67 68 68 64 68 81 87 98 98 99 98 96 85 81 76 73 62 50 33 36 36 36 63 74 81 96 96 98 94 78 65 57 50 50 49 49 48 48 46 45 46 48 53 45 47 48
60 60 51 51 44 37 55 81 97 98 99 98 96 86 87 85 75 62 51 34 50 43 38 66 75 86 98 97 96 92 75 60 55 53 57 56 53 49 50 52 52 51 58 60 55 52 55
49 46 44 45 37 45 57 70 98 96 98 97 95 91 86 72 64 57 43 42 67 68 64 65 78 91 95 94 95 90 81 67 61 62 60 57 55 54 51 55 60 57 62 62 69 60 61
51 41 29 30 41 52 63 69 86 93 95 92 89 84 76 74 68 55 46 49 77 75 89 67 78 94 93 94 89 80 72 70 65 62 62 58 59 53 48 54 56 62 66 68 66 62 70
41 24 26 36 50 58 67 71 72 72 74 70 75 73 67 66 69 61 52 50 83 97 92 77 90 97 96 90 86 80 75 67 67 66 61 61 59 55 60 64 67 72 75 74 69 71 74
29 26 29 39 46 65 78 83 79 71 66 66 66 66 64 61 62 66 54 69 96 93 96 96 96 97 89 88 86 75 68 71 66 61 58 59 59 64 68 71 75 73 76 77 79 76 72
26 25 30 35 45 55 71 83 86 84 77 66 71 64 60 54 57 57 70 95 95 95 96 98 98 97 93 90 84 75 73 69 63 61 66 65 61 68 68 67 71 73 69 76 84 87 87
25 26 31 35 39 50 62 74 84 86 92 68 57 54 53 54 61 65 74 88 97 97 97 99 98 97 89 81 79 75 74 60 63 62 64 71 78 79 77 72 67 71 76 87 88 93 95
19 23 30 33 35 45 51 59 61 58 55 52 46 45 48 48 61 79 87 94 97 93 94 97 95 93 78 87 81 72 66 65 69 75 79 82 78 77 74 68 70 76 83 86 90 97 95
18 24 30 33 33 37 44 48 46 42 40 38 41 43 54 67 80 88 92 93 89 91 95 93 88 82 85 78 68 68 74 77 80 87 91 90 85 80 77 78 77 91 94 95 96 98 97
19 24 29 34 34 37 38 44 46 41 36 37 40 47 58 70 76 80 84 85 82 90 86 87 82 77 73 76 89 88 89 88 87 94 97 91 87 81 77 83 87 91 97 98 96 97 98
18 21 28 32 30 34 34 37 42 41 39 41 46 49 55 63 69 75 76 78 86 86 84 86 86 82 86 91 95 93 91 90 87 91 95 95 89 83 83 85 89 95 98 97 98 98 98
13 21 24 27 30 31 33 32 31 37 40 44 49 55 63 68 69 70 71 82 92 89 84 82 78 78 91 95 95 91 92 92 89 90 94 93 95 84 84 88 85 91 93 97 96 96 97
12 18 23 25 27 30 32 36 38 36 41 46 50 55 64 64 64 66 75 82 81 82 81 78 78 79 85 91 91 91 84 79 81 87 93 92 92 81 80 76 79 87 96 95 88 90 97
17 14 20 26 28 28 26 28 31 39 46 48 51 58 63 64 67 69 72 69 76 81 77 78 74 73 75 78 77 78 82 78 78 85 89 83 85 88 73 69 74 79 83 86 88 85 82
21 17 17 26 28 30 32 30 33 36 43 47 56 65 71 72 79 75 69 62 65 71 73 74 72 67 64 64 66 74 73 69 76 79 77 76 80 87 73 63 66 76 73 72 75 76 83
29 16 17 21 32 35 36 34 33 37 40 45 52 58 62 72 78 75 71 67 59 64 69 72 69 61 64 61 60 65 66 65 67 64 61 60 65 69 73 70 71 74 72 71 71 83 91
41 17 17 16 25 31 34 34 34 35 39 44 49 55 59 68 65 72 71 66 59 60 61 63 60 60 59 61 58 60 58 58 54 53 53 52 60 61 58 59 60 62 67 66 73 72 83
54 25 16 14 17 29 36 37 38 37 36 41 47 49 51 60 62 66 68 63 56 55 57 59 58 58 57 62 59 54 52 50 52 47 49 49 56 56 52 52 50 52 55 58 58 59 63
65 35 20 14 13 25 32 39 41 36 35 38 45 47 45 51 56 56 55 54 54 54 54 54 51 48 49 50 48 44 44 42 42 43 43 44 50 56 52 53 48 45 48 50 50 51 49
70 50 24 18 13 23 29 38 43 40 39 36 37 38 39 41 50 51 50 49 48 50 54 50 46 43 42 40 39 38 39 39 36 36 38 40 44 48 51 48 45 41 41 44 47 47 45
70 63 30 22 18 22 30 33 37 40 44 40 36 38 37 36 44 47 46 45 46 47 49 48 44 43 41 38 38 39 38 34 33 33 33 34 41 45 49 50 37 37 37 39 39 42 43
71 69 43 25 22 25 28 33 35 41 46 49 39 31 32 36 39 42 44 44 46 47 46 44 43 42 41 42 39 40 42 36 36 33 32 32 34 39 42 42 36 35 34 34 36 35 35
73 69 52 33 25 27 25 30 33 38 44 50 49 37 29 35 36 39 42 43 44 47 47 44 44 40 39 43 43 42 44 38 42 39 37 37 38 40 42 43 37 32 31 30 32 28 30
74 72 56 42 29 30 29 30 34 38 40 41 45 44 38 32 35 36 36 39 40 44 47 44 42 43 42 43 45 44 41 39 38 34 35 36 39 42 42 43 38 31 30 29 28 31 31
75 77 62 45 37 33 36 34 35 36 39 43 43 43 45 43 35 31 33 34 36 41 43 46 48 49 48 49 48 47 45 43 40 40 35 40 36 39 38 36 30 29 28 28 30 29 30

GFSGBSN_prec_cthk_105.txt.gz
RH
57 56 46 43 46 50 43 65 71 82 98 98 98 94 91 94 90 78 80 72 70 73 76 82 84 90 84 96 95 80 61 60 55 44 43 47 44 41 37 36 36 38 35 32 31 30 28
44 38 34 31 22 30 36 41 41 46 95 98 99 95 88 84 81 78 71 62 49 51 62 75 77 89 93 94 96 96 86 73 58 55 54 53 46 42 39 39 38 39 40 37 33 28 28
35 30 23 26 34 40 49 55 69 81 97 98 98 98 90 83 79 76 69 53 40 40 50 67 82 94 86 97 95 98 93 79 68 56 58 55 47 44 41 43 45 44 43 38 29 27 31
39 25 23 29 37 49 58 62 78 94 98 98 99 98 87 80 76 73 69 58 46 40 39 39 68 80 92 97 95 95 98 89 72 66 60 54 50 47 45 46 47 45 44 46 30 35 35
27 21 26 32 38 55 64 61 64 85 91 93 95 95 86 80 73 69 66 60 67 48 38 45 72 73 89 91 90 96 95 88 75 65 58 55 52 49 50 50 51 45 51 47 45 41 43
22 23 28 32 41 61 72 73 60 57 62 71 78 81 75 70 67 61 54 54 67 64 61 66 74 84 81 84 98 96 92 83 68 62 58 57 57 54 52 49 53 51 56 53 54 47 54
22 25 30 32 39 54 69 69 68 61 54 56 56 56 58 62 59 55 48 51 73 79 79 74 70 71 68 86 94 94 91 85 71 65 63 63 63 57 48 48 49 55 59 60 53 56 61
22 25 32 30 38 49 59 61 67 68 55 58 57 54 53 52 59 59 50 52 79 86 87 72 67 76 86 95 93 92 85 78 73 69 65 62 56 50 52 54 58 59 61 62 54 60 65
23 26 32 30 31 41 53 62 65 71 58 52 51 52 53 53 57 57 57 58 79 75 77 84 78 77 89 96 91 84 78 78 72 69 62 58 54 56 57 60 63 63 66 63 68 66 67
21 27 30 32 31 34 46 51 50 53 53 54 53 51 51 52 64 78 75 75 76 84 95 95 96 98 94 91 90 91 84 76 69 61 57 60 55 55 65 67 66 66 58 65 75 84 84
22 28 30 31 32 27 28 38 40 39 45 54 57 56 57 63 73 83 86 88 93 91 87 96 93 94 96 96 93 83 76 76 64 58 61 61 68 74 72 68 65 63 65 80 86 91 93
19 26 31 32 33 30 25 30 31 32 37 46 54 57 59 65 74 87 89 97 97 91 97 99 98 98 97 89 87 79 78 64 71 73 75 78 74 73 70 65 65 69 78 79 83 92 93
15 25 30 34 34 34 26 28 32 33 37 46 55 64 68 68 73 79 86 87 85 88 97 98 96 89 87 86 75 71 74 77 84 91 90 86 80 76 70 71 71 80 90 91 90 98 96
14 19 29 31 34 32 33 28 33 42 50 54 58 62 68 72 71 70 74 74 77 90 89 87 87 81 78 76 81 83 88 90 93 95 95 88 79 74 72 76 84 89 97 98 96 97 97
19 15 22 28 26 27 28 33 37 41 48 53 61 68 70 71 72 67 67 70 82 84 82 77 74 84 94 98 96 91 91 92 91 93 92 92 80 77 80 81 89 95 98 97 98 98 98
21 19 19 24 27 27 27 31 34 42 44 48 55 64 66 68 67 70 65 75 84 79 72 81 88 90 91 93 91 90 90 87 93 92 90 88 87 76 77 85 89 96 95 97 97 97 96
30 20 21 25 28 29 27 27 29 35 42 47 53 65 68 66 59 63 70 73 75 72 73 80 82 85 88 90 86 90 87 83 86 89 90 89 89 77 79 82 82 93 97 98 97 98 97
53 22 20 24 27 31 28 29 30 35 35 40 43 61 70 62 56 64 72 72 71 73 72 71 72 71 74 79 87 83 80 82 82 86 92 85 84 87 71 72 80 82 84 87 98 93 91
64 38 18 15 26 31 34 29 29 31 35 38 46 52 63 62 67 60 62 64 67 70 69 66 64 64 62 70 76 76 79 78 79 78 78 77 79 86 72 69 79 84 76 73 77 81 89
67 56 28 16 12 26 34 37 32 29 32 37 41 48 54 57 64 58 56 60 63 63 65 61 60 56 57 63 65 71 71 65 63 64 64 64 69 71 74 79 80 82 79 76 79 89 92
69 65 40 24 12 17 29 36 41 33 31 31 34 43 55 60 61 58 54 58 58 60 55 55 55 57 52 58 57 59 56 55 54 58 55 55 61 63 60 61 68 69 79 81 88 85 91
62 68 54 31 18 17 26 33 42 37 35 31 30 36 46 54 58 56 52 55 56 56 55 51 52 52 51 52 50 51 51 48 49 47 50 52 57 57 50 51 53 55 62 64 71 74 81
59 67 64 38 24 20 25 32 33 35 40 33 30 29 29 47 50 52 53 51 52 53 51 50 48 47 45 46 44 43 43 41 40 42 42 43 46 52 49 52 48 43 47 50 50 50 50
57 63 67 52 29 23 25 31 32 32 38 42 30 30 25 37 45 45 45 46 48 50 52 48 44 44 42 41 39 38 37 37 36 35 36 38 42 46 49 41 38 36 39 42 45 44 42
55 62 67 58 41 27 27 29 33 33 37 41 37 28 27 30 34 41 42 42 41 44 46 45 42 41 40 39 38 37 37 31 31 32 32 33 38 41 45 47 32 33 34 38 39 39 40
55 61 66 62 49 33 29 30 31 36 38 40 40 31 29 29 31 32 38 40 44 43 43 42 41 40 38 38 37 38 37 36 32 33 33 34 35 38 41 41 31 29 31 31 33 36 34
56 63 67 64 55 43 31 32 31 34 38 39 40 41 35 31 29 31 33 34 37 44 45 41 40 39 38 40 41 40 41 38 39 38 36 35 37 39 43 43 33 30 30 29 31 24 30
57 65 70 68 59 48 40 34 36 35 36 37 37 37 40 40 35 31 29 30 33 37 42 42 41 41 40 40 45 45 42 39 40 35 34 35 37 39 41 42 33 30 31 30 26 28 29
60 69 75 70 67 53 46 41 38 37 37 37 37 38 38 42 42 38 33 29 30 31 35 39 43 46 45 46 47 47 45 44 41 43 34 41 38 40 40 34 30 30 28 28 28 28 29

GFSGBSN_prec_cthk_108.txt.gz
RH
22 22 22 28 32 38 44 47 65 89 79 58 96 98 98 99 94 95 84 83 79 81 83 88 86 78 86 97 98 91 82 79 73 62 46 39 39 37 39 39 38 38 35 33 31 28 27
22 23 29 32 36 41 50 49 62 94 97 98 99 99 98 88 86 92 85 71 68 59 67 76 85 87 98 97 96 93 91 94 67 55 51 49 45 42 42 41 39 39 37 34 31 28 29
23 27 30 34 39 40 50 52 46 72 94 96 98 98 97 87 75 78 83 64 60 51 58 75 92 89 96 97 97 97 98 94 79 64 60 55 49 47 44 44 44 43 40 38 31 30 31
24 31 34 35 40 38 43 51 44 45 65 84 86 86 81 81 72 71 76 62 53 51 50 71 90 98 99 98 97 97 97 95 85 74 65 60 54 51 49 47 44 43 43 44 30 33 33
25 33 34 37 38 38 43 44 50 42 41 51 61 61 63 64 60 59 61 77 69 46 39 62 86 89 97 97 97 96 97 95 88 78 68 63 57 56 51 50 51 50 53 48 40 37 38
27 33 36 38 38 36 42 45 51 45 41 42 42 44 51 53 52 53 57 77 76 58 50 59 62 79 84 89 98 93 94 90 82 77 68 61 59 57 54 54 51 49 54 48 48 40 45
28 32 36 38 39 38 38 42 45 44 40 43 50 54 46 47 50 50 48 71 81 68 68 73 80 82 84 86 87 95 92 87 81 71 66 65 62 61 53 49 46 47 52 53 45 44 51
25 30 34 40 42 41 36 37 38 44 47 44 50 60 62 50 47 50 46 69 77 75 80 74 71 70 69 76 81 92 90 89 78 72 67 63 62 52 48 47 49 52 56 53 48 50 57
19 28 31 36 45 43 35 31 35 44 48 47 52 55 63 54 49 47 52 74 72 79 77 76 73 73 73 80 85 93 88 80 74 71 67 61 51 51 51 53 57 58 61 58 57 56 60
15 26 28 34 43 43 40 34 37 44 52 54 55 61 60 71 56 52 61 68 75 72 70 79 75 76 72 92 89 86 80 77 72 66 62 56 51 49 50 58 66 64 55 58 66 73 81
14 18 27 30 38 43 43 41 40 44 54 61 64 66 68 72 70 58 60 67 62 64 89 98 98 92 92 96 91 91 85 78 69 57 54 51 54 63 68 64 64 62 61 68 79 86 87
19 16 23 27 32 39 46 47 45 46 56 63 66 65 66 69 71 70 69 69 76 76 94 96 96 97 98 95 93 82 74 66 63 61 60 65 66 67 67 66 65 66 74 78 82 87 90
21 18 18 23 25 31 40 45 41 45 52 63 69 72 69 68 68 74 75 73 74 81 94 96 98 97 93 91 78 75 70 71 76 84 80 75 74 72 69 72 71 79 87 90 86 95 92
27 22 19 19 24 24 32 38 44 42 48 59 68 67 70 68 69 68 71 72 75 89 91 89 86 80 76 74 76 74 79 88 88 89 85 81 73 71 72 76 84 89 94 96 93 95 92
55 21 22 22 23 25 25 28 36 39 39 49 60 62 66 62 64 65 66 70 80 79 75 76 83 90 92 91 88 87 92 94 95 92 93 91 84 80 81 83 86 92 96 95 97 96 98
67 42 17 20 27 25 25 28 33 36 37 41 50 58 55 60 62 63 64 64 74 76 83 89 87 87 87 88 90 91 94 94 96 92 90 89 90 78 82 88 88 94 93 97 97 96 96
62 65 35 14 15 31 30 29 29 32 32 33 46 49 46 51 56 56 63 71 78 81 85 86 84 88 86 89 88 90 88 86 89 90 91 92 92 77 81 88 87 96 98 98 98 98 97
65 64 55 27 11 14 31 35 31 28 31 31 34 52 44 43 57 65 68 71 74 77 77 76 76 74 82 85 88 88 84 84 84 86 90 87 89 88 80 81 81 83 85 93 97 97 96
61 62 64 43 18 12 20 30 36 28 29 31 28 42 47 39 57 63 63 64 66 68 69 70 70 71 74 76 79 81 79 75 76 77 73 74 78 84 72 75 77 83 82 81 89 91 90
54 61 63 57 30 14 21 29 36 30 28 28 28 35 42 43 49 55 61 62 60 59 61 64 66 63 64 71 70 65 62 62 61 62 62 62 69 70 81 80 82 85 88 89 84 93 92
50 58 60 59 47 20 22 31 33 30 28 26 27 37 40 46 48 49 54 58 58 57 54 57 57 61 62 60 54 54 51 51 51 50 53 54 57 61 58 62 69 74 79 90 94 88 94
46 54 60 61 54 34 22 30 31 30 32 25 27 31 36 40 41 42 48 53 54 53 52 52 54 54 52 53 54 53 50 45 44 43 45 47 51 53 47 47 56 50 61 66 77 83 88
50 51 58 60 56 47 28 26 31 30 36 30 25 28 31 35 38 39 44 45 48 49 48 48 49 49 46 46 46 45 45 44 41 40 41 40 41 43 41 41 39 38 41 46 47 48 52
53 53 55 61 58 53 40 25 29 31 34 38 27 25 26 34 33 34 37 38 39 42 47 46 43 43 41 41 38 38 39 39 38 37 36 37 40 43 44 34 32 28 35 38 40 39 40
54 57 54 58 58 57 51 33 28 31 34 37 37 25 24 30 33 33 31 33 36 36 39 40 40 41 40 37 36 36 37 31 32 33 35 36 37 40 42 42 24 26 30 32 34 32 34
58 61 56 59 62 58 54 44 31 32 33 35 38 38 27 24 29 31 32 31 30 33 35 33 34 36 36 37 37 36 34 36 35 34 34 36 36 38 39 39 23 23 28 30 31 35 30
61 65 63 61 64 61 58 53 39 33 35 33 36 37 40 34 27 28 31 33 32 31 33 33 31 33 33 35 40 41 41 37 38 38 34 36 38 39 41 44 31 27 29 29 33 24 28
62 64 63 62 67 68 63 58 47 37 35 35 33 36 36 38 38 33 30 27 30 33 34 35 36 35 35 35 40 41 42 40 41 36 33 35 37 39 43 46 35 27 30 31 28 28 29
65 67 62 64 70 68 66 66 55 44 38 36 34 34 36 38 37 39 36 35 30 27 31 33 38 43 45 43 43 44 44 43 39 42 33 41 35 35 37 31 26 27 27 27 28 29 30

GFSGBSN_prec_cthk_111.txt.gz
RH
23 31 32 36 38 42 45 40 35 44 77 94 96 95 98 98 97 95 93 81 74 72 82 87 85 83 85 91 90 88 93 89 79 63 49 41 40 39 40 39 37 37 34 33 31 29 27
30 31 33 36 41 44 50 45 37 32 53 72 84 88 93 91 87 80 86 78 70 58 63 89 89 81 84 94 92 89 96 98 91 79 57 47 42 39 39 39 36 36 36 34 29 28 29
29 33 35 36 43 47 51 55 44 35 29 43 60 72 85 86 80 68 78 73 65 53 63 75 89 88 89 97 94 97 98 97 80 69 63 58 50 46 42 40 39 38 37 34 32 30 30
26 33 35 36 43 45 49 53 59 43 39 31 33 48 61 75 71 64 70 82 74 67 70 91 93 96 98 97 97 97 97 95 86 78 71 63 52 46 44 43 42 42 42 38 32 35 34
25 30 34 37 43 44 48 50 52 53 46 41 41 35 45 57 59 61 78 86 70 56 79 96 96 93 98 98 98 95 96 95 89 82 72 61 52 51 50 50 49 50 48 47 39 38 39
23 24 33 37 43 50 50 48 53 57 50 53 53 47 36 54 53 57 78 78 69 58 88 98 96 96 98 98 98 98 96 93 89 79 72 64 60 58 58 54 46 45 50 47 46 39 41
22 22 26 38 42 49 45 48 52 60 55 58 55 46 39 38 49 55 84 78 63 59 74 86 89 92 92 94 91 97 94 88 79 74 73 67 64 60 56 50 46 47 50 51 42 40 44
20 21 24 31 40 45 47 44 50 57 61 60 60 48 38 38 51 53 73 79 72 72 72 82 87 86 80 74 85 94 88 84 78 74 68 66 62 58 52 49 49 51 52 50 42 42 45
20 20 20 27 34 43 49 45 51 58 65 64 68 48 35 34 44 47 68 79 72 63 68 73 72 69 68 74 78 90 86 82 76 70 67 61 56 54 52 53 53 53 55 52 50 45 48
24 21 21 19 30 36 47 47 47 60 66 68 69 60 38 33 38 48 53 63 60 56 58 68 70 71 70 77 81 87 84 79 72 68 64 58 53 50 49 50 52 59 49 49 51 62 67
39 23 23 22 19 33 43 48 47 54 67 67 66 65 47 36 34 43 49 50 50 50 71 86 84 71 75 86 79 85 83 75 72 66 58 51 51 57 62 61 59 54 50 56 67 77 80
49 34 23 23 24 22 37 46 45 49 62 64 68 66 66 50 46 49 51 50 60 65 88 93 91 92 93 93 90 82 76 67 64 64 62 59 58 60 57 55 54 54 64 71 77 83 87
56 45 29 23 27 26 27 35 40 41 48 60 61 64 66 64 61 60 64 63 68 82 94 96 96 97 94 85 78 74 70 69 70 70 69 65 64 60 58 62 65 73 81 83 83 91 87
63 54 37 21 24 30 30 30 32 33 39 48 53 58 61 63 63 61 63 64 71 82 81 80 83 86 79 78 70 73 77 78 77 77 74 71 66 66 66 72 81 87 92 94 92 91 87
63 61 53 28 12 25 33 32 28 28 35 38 47 50 55 56 57 57 57 68 80 83 80 83 85 85 83 86 86 85 86 80 78 79 79 81 76 76 78 81 87 93 97 95 97 97 97
61 64 58 44 20 13 29 35 28 24 29 32 38 41 47 51 51 55 60 69 80 82 84 86 87 84 83 83 86 88 86 84 88 88 87 86 87 77 82 89 92 97 96 97 97 96 95
53 63 61 53 30 14 23 31 33 23 25 30 34 37 41 48 52 59 66 75 79 82 84 84 81 84 84 85 85 87 87 89 91 92 92 91 89 80 86 92 97 96 98 98 98 98 96
47 58 63 54 49 23 25 31 34 23 23 25 33 38 38 42 50 64 67 70 71 72 74 76 76 73 79 84 87 88 87 86 87 87 89 87 91 92 85 83 84 86 95 97 96 97 94
45 51 60 58 49 36 24 29 31 26 21 22 30 34 35 37 47 56 61 63 65 67 68 70 70 69 71 73 76 77 74 74 75 77 79 79 77 84 74 79 82 87 95 94 95 92 88
47 50 57 61 50 48 31 25 25 29 20 21 26 34 32 34 41 44 48 56 61 61 63 63 65 64 62 60 60 62 60 58 61 64 69 64 65 68 74 78 77 80 85 91 89 91 87
49 50 56 60 51 51 42 27 26 28 25 19 25 35 34 36 38 39 41 46 52 57 57 57 56 59 57 55 51 52 51 50 50 49 53 53 53 55 56 54 60 68 75 87 90 85 90
49 50 56 60 53 51 50 34 24 27 31 19 22 30 34 34 35 36 37 42 41 45 50 49 51 52 51 51 52 52 48 43 41 39 41 43 45 46 47 40 46 53 53 57 58 65 70
49 50 56 63 59 53 51 45 30 26 29 30 21 26 30 34 32 32 34 35 37 36 39 43 45 45 44 42 42 44 43 42 42 40 38 39 41 42 40 36 36 35 34 39 39 42 47
50 48 51 60 67 53 55 52 39 30 29 32 30 22 24 32 34 31 31 31 33 34 35 35 37 40 39 38 35 35 37 39 38 38 38 39 40 42 43 32 25 21 29 33 36 36 37
49 48 49 54 66 57 59 56 53 36 30 30 32 31 23 25 32 33 32 32 31 31 34 34 32 32 32 32 33 32 32 28 31 34 36 38 40 42 41 42 20 23 25 31 34 31 33
49 49 50 50 61 56 64 66 57 48 35 31 31 32 33 27 24 30 33 33 33 33 31 31 33 34 32 30 32 32 31 34 32 31 33 36 37 38 41 35 20 18 26 28 29 30 25
49 49 51 52 59 60 59 67 64 58 45 34 32 31 32 35 31 28 30 34 33 35 35 34 34 34 35 33 34 35 35 34 36 35 31 34 35 38 39 41 28 23 27 27 30 21 25
52 52 53 57 58 63 59 58 68 65 57 45 35 31 30 32 33 34 33 30 31 32 32 31 33 37 39 38 40 40 40 37 39 34 31 31 35 40 44 46 35 27 29 29 27 27 28
56 56 58 62 62 68 63 60 59 71 64 54 46 37 33 31 31 32 35 36 36 34 33 32 34 38 41 41 42 43 43 43 39 41 32 37 32 32 33 29 26 29 29 28 28 28 28

GFSGBSN_prec_cthk_114.txt.gz
RH
22 25 34 35 43 49 54 59 58 46 42 45 61 81 92 93 93 91 83 81 72 72 81 89 84 90 96 97 98 93 94 97 87 62 47 39 34 32 31 31 32 31 31 30 27 26 25
22 24 32 36 44 47 50 60 65 55 44 41 45 63 88 89 86 80 80 72 63 52 73 89 91 90 97 97 94 95 95 97 92 79 60 49 42 37 35 35 32 32 31 30 27 27 28
21 23 29 38 43 48 51 60 68 62 58 54 51 41 79 80 79 70 72 67 50 53 59 84 92 90 94 97 96 95 94 95 93 81 73 58 46 42 38 36 34 33 32 30 29 30 29
22 23 25 40 44 43 44 56 77 69 62 69 69 50 47 80 72 73 78 75 68 64 77 87 95 93 95 97 98 95 91 93 87 79 66 61 54 46 44 41 38 36 37 33 29 32 33
24 23 25 35 40 41 45 56 70 74 69 71 66 59 46 68 73 91 85 67 67 94 98 96 96 92 98 97 98 96 97 93 81 78 72 66 59 59 53 51 48 43 42 36 33 36 37
30 24 26 31 42 44 47 58 67 71 69 61 55 51 45 66 74 83 82 78 90 97 97 98 97 96 98 99 97 96 96 94 85 77 68 63 60 59 55 46 43 41 46 43 38 37 36
38 28 27 30 40 43 47 58 65 64 63 50 41 41 53 61 82 80 74 65 86 91 94 97 98 95 99 97 98 96 93 88 82 79 72 64 57 57 51 49 48 48 45 41 36 36 39
44 32 29 29 36 41 44 53 59 58 52 44 47 45 45 56 79 75 62 56 64 81 91 94 91 84 85 92 96 94 89 83 79 76 70 64 61 60 55 52 48 47 44 41 38 39 40
43 42 27 32 33 38 41 46 53 60 53 39 41 41 39 47 69 72 65 52 56 60 63 72 77 78 78 84 92 91 89 81 73 67 64 59 60 57 52 50 49 45 44 46 46 41 38
44 46 33 29 33 34 35 39 44 55 56 47 37 36 33 41 63 69 58 51 53 46 54 66 65 68 76 79 89 88 85 80 71 66 60 55 52 48 48 47 47 48 44 46 46 49 54
57 43 39 28 32 36 25 30 37 43 51 52 44 37 31 32 42 50 49 48 48 49 66 72 66 69 76 74 83 82 78 74 70 63 56 50 51 51 52 52 50 49 49 49 53 61 69
63 51 44 21 31 36 27 26 31 36 44 48 50 47 42 42 41 42 45 48 52 63 82 80 79 81 78 79 82 75 69 64 60 59 55 53 51 53 54 53 53 50 52 56 63 74 80
61 62 46 34 16 31 34 24 27 31 38 45 47 48 48 46 47 51 56 57 68 74 90 91 94 88 78 72 71 72 66 64 64 68 66 60 60 55 54 56 59 64 71 77 79 84 76
54 63 55 44 22 20 34 26 25 27 30 39 43 44 45 46 49 49 48 50 62 80 84 86 86 80 73 77 72 75 73 74 74 67 64 65 64 60 63 68 74 79 87 88 83 77 77
50 58 62 45 35 23 29 26 24 25 27 31 37 38 40 43 46 46 49 62 73 71 71 72 74 71 76 75 73 72 74 73 70 68 67 69 68 71 74 77 82 89 93 87 93 91 94
48 56 61 52 45 27 29 33 23 22 26 28 34 34 37 41 45 50 55 67 76 79 80 78 76 77 76 76 77 76 74 76 77 77 75 75 78 71 77 83 88 94 95 95 95 90 86
47 53 60 57 47 38 29 31 22 20 24 25 29 32 36 38 41 54 61 69 74 78 78 78 76 78 78 79 80 82 81 83 84 85 83 82 86 80 83 87 91 91 95 96 95 90 86
45 48 57 59 48 49 30 26 25 19 19 26 25 35 35 36 44 46 55 63 68 70 75 75 76 72 77 83 83 83 82 79 78 79 81 80 84 86 77 78 84 86 95 95 88 89 83
45 47 52 63 54 47 46 27 26 19 19 21 25 28 33 34 44 45 46 50 56 61 65 67 70 72 74 72 70 70 70 71 73 72 72 72 74 81 71 73 77 83 92 93 88 87 81
48 42 45 56 59 48 48 37 25 26 17 19 23 30 28 32 36 39 43 46 48 50 53 57 58 57 57 54 54 52 50 54 56 57 60 62 61 60 62 62 67 73 76 89 85 88 78
41 40 42 46 56 53 48 49 30 26 22 17 23 29 28 34 34 36 38 40 42 43 45 45 45 47 48 45 44 43 44 42 43 43 46 49 50 46 42 48 57 64 65 72 77 72 71
36 41 41 43 48 55 49 53 41 29 26 19 21 27 28 31 31 33 35 37 37 37 37 37 37 38 38 38 39 39 41 38 35 36 37 40 41 39 38 33 38 39 36 38 47 52 52
35 39 42 42 44 48 50 56 52 37 27 26 20 22 25 30 29 31 32 34 35 37 35 35 35 34 33 32 32 33 35 35 35 36 34 35 37 38 33 28 28 26 23 30 34 37 42
35 37 44 41 44 46 50 53 59 49 35 28 28 24 21 26 27 27 29 31 33 36 40 37 37 36 35 33 30 30 31 32 35 36 35 33 35 39 40 31 27 20 25 27 32 32 35
37 38 42 43 46 46 47 51 55 59 48 36 31 29 28 21 25 26 28 29 30 30 31 34 35 35 35 33 31 26 25 25 27 31 34 34 34 35 34 31 18 20 21 27 30 28 29
41 39 41 47 44 49 47 51 51 55 59 51 38 32 30 29 25 25 28 29 30 28 27 28 29 32 34 32 31 29 23 25 25 28 32 35 36 33 34 32 18 15 22 24 27 26 24
47 47 45 48 47 52 52 52 54 52 58 59 49 39 33 32 28 31 32 29 29 30 28 29 29 30 32 34 33 31 29 31 29 29 31 35 36 38 34 31 21 19 23 26 26 20 24
51 55 55 52 52 54 58 57 56 55 54 63 59 51 42 35 31 29 31 35 36 32 30 28 28 30 34 35 35 34 36 33 35 31 30 27 27 31 34 38 33 24 28 27 26 27 29
58 56 59 59 57 63 61 63 58 59 55 56 61 59 53 44 33 30 28 29 33 36 34 35 34 37 37 38 38 39 40 40 38 34 33 36 31 32 31 26 26 29 29 30 32 32 33

GFSGBSN_prec_cthk_117.txt.gz
RH
25 27 37 41 42 43 50 62 73 66 69 64 63 80 88 92 94 88 83 78 72 79 85 93 84 95 95 97 98 95 98 95 77 56 46 38 32 30 28 28 27 25 26 25 25 24 23
25 27 38 44 36 41 50 59 78 68 67 87 73 62 91 86 78 82 76 71 61 63 82 94 90 96 96 97 98 95 97 98 88 71 52 43 38 34 32 30 29 28 27 25 24 23 22
30 27 34 44 39 44 52 57 66 59 69 84 80 63 77 85 75 69 58 56 55 56 78 96 93 92 96 99 99 97 98 98 88 78 63 51 43 38 34 32 32 30 27 25 24 24 25
36 28 31 41 43 44 53 53 54 47 43 55 62 55 80 76 84 74 73 68 71 63 83 99 97 98 98 98 96 94 97 94 89 79 70 64 55 45 39 36 33 31 28 29 28 26 29
41 33 30 37 40 44 53 52 46 46 39 36 44 63 74 87 78 76 77 96 98 98 96 98 95 96 96 98 98 95 94 91 89 80 70 60 57 55 50 47 41 38 42 31 31 31 33
44 36 32 35 37 43 51 51 47 42 39 40 45 54 59 78 78 89 93 97 98 98 98 96 94 92 97 98 98 95 95 89 86 77 69 62 56 57 54 51 52 48 46 39 37 43 40
39 37 31 32 31 40 46 53 47 36 35 35 39 43 58 66 72 73 92 95 97 97 97 97 99 98 98 98 97 96 93 85 76 71 68 64 64 68 63 55 51 46 43 42 40 42 43
42 39 32 33 24 31 40 46 48 40 32 31 33 42 53 56 57 57 67 77 85 85 88 89 96 96 96 95 96 93 92 86 82 76 68 62 61 55 53 49 48 44 45 45 45 42 40
53 38 25 32 26 25 30 40 43 40 37 31 29 34 47 53 52 54 55 55 57 62 73 77 80 85 91 91 90 89 87 83 76 73 70 66 64 57 54 53 49 46 43 42 44 41 36
61 47 34 21 31 23 26 32 40 42 38 34 29 27 40 51 51 47 48 46 45 45 53 70 73 78 86 89 86 85 82 79 72 69 63 61 54 53 50 47 43 43 42 42 44 46 48
64 57 38 24 24 23 24 26 33 40 41 38 34 32 32 35 36 40 41 43 45 45 58 59 72 74 81 82 81 80 76 73 71 63 61 54 52 50 52 50 46 48 46 46 45 50 56
60 65 47 34 24 21 24 22 26 34 39 40 39 36 35 40 43 46 50 54 54 68 73 70 70 73 83 78 74 71 68 63 59 58 53 52 49 51 51 48 48 45 46 46 50 58 69
55 63 56 41 26 26 19 22 22 26 33 37 39 39 38 39 45 51 53 58 75 74 79 73 69 68 66 69 67 67 65 62 60 66 64 58 55 53 49 51 50 53 57 65 78 83 72
49 59 63 47 39 29 23 21 21 21 25 31 37 38 40 41 39 41 46 57 69 80 73 69 68 65 67 70 65 66 63 63 61 60 60 63 62 52 52 57 64 70 73 81 83 78 69
46 56 58 58 40 36 27 18 20 20 22 27 33 36 39 41 43 43 48 57 69 66 66 66 67 62 66 69 70 66 66 68 65 60 58 59 59 57 61 66 72 86 88 86 91 77 86
39 43 50 53 49 46 27 20 17 20 20 24 28 32 37 39 43 47 56 61 64 67 70 71 72 68 67 64 67 65 62 62 63 64 61 64 70 64 72 75 82 87 92 97 97 89 86
36 37 44 51 50 43 41 24 16 18 20 21 23 31 33 36 41 50 61 62 65 66 67 67 66 69 68 68 70 70 69 71 72 74 73 76 79 78 79 83 82 93 94 95 92 85 86
36 34 40 48 48 48 48 31 22 15 19 20 22 32 30 33 41 46 54 57 60 62 65 67 68 68 69 73 74 73 71 71 73 78 77 74 75 82 74 75 78 84 87 89 87 88 76
33 32 37 43 44 45 50 46 26 18 15 20 24 27 26 28 43 42 44 49 54 57 60 60 62 61 60 61 64 61 61 65 65 66 70 72 72 75 69 70 74 78 84 86 82 82 80
33 31 35 40 42 41 43 53 42 24 16 16 22 28 27 28 32 36 41 42 45 47 48 49 47 45 44 42 41 44 43 46 48 53 50 54 55 59 61 55 60 65 66 78 82 84 69
30 31 32 37 41 40 42 44 53 36 22 17 21 25 25 32 30 31 34 37 37 41 42 41 39 40 39 37 35 33 34 34 33 36 37 41 41 41 40 41 44 47 48 47 62 62 62
29 31 33 34 39 41 40 43 51 49 33 23 24 25 26 24 25 29 29 30 33 34 36 35 37 37 37 36 34 36 36 34 32 34 33 35 38 35 34 25 28 29 29 33 36 42 46
31 32 35 37 36 40 39 42 44 52 48 35 26 24 25 27 27 26 27 27 29 30 32 34 34 33 32 35 33 32 31 31 34 35 35 35 36 35 33 26 24 23 19 21 24 28 33
35 36 37 39 40 39 39 42 44 46 51 52 37 29 26 27 25 25 25 26 28 29 30 30 30 31 29 30 27 27 28 29 29 30 36 36 38 40 41 31 34 22 19 21 19 23 27
41 42 42 42 44 45 46 41 47 47 47 51 54 39 33 27 25 25 25 27 28 28 28 26 26 27 28 27 25 22 22 24 26 30 35 36 37 39 42 32 20 16 19 24 28 24 26
44 44 46 45 48 48 49 49 46 50 50 49 53 53 45 35 27 27 28 29 27 29 29 26 26 27 29 27 28 28 21 21 22 27 29 34 37 40 33 38 24 22 22 23 25 26 27
48 45 46 49 50 54 50 53 50 53 52 53 53 53 55 50 37 30 31 31 32 32 28 26 28 29 31 29 30 27 25 25 24 25 30 32 34 38 37 42 28 23 24 25 29 30 29
59 55 48 48 50 56 59 56 56 58 56 55 54 55 52 54 49 41 31 30 32 35 35 35 31 34 35 36 33 30 32 30 30 24 26 28 30 37 34 37 37 24 25 25 25 26 29
69 71 65 53 53 56 64 63 64 66 60 60 58 57 59 57 50 50 45 34 28 31 35 37 35 35 38 41 38 38 37 36 31 29 31 32 26 24 24 24 24 23 23 24 26 27 29

GFSGBSN_prec_cthk_123.txt.gz
RH
28 25 28 30 32 26 30 38 44 46 54 59 66 70 64 56 54 56 55 52 65 65 72 78 90 91 97 97 98 99 95 76 61 51 43 35 31 30 26 25 23 25 25 25 25 23 20
31 25 27 28 32 28 26 34 39 45 53 56 59 57 57 57 55 48 42 52 64 70 79 87 95 89 95 96 98 99 92 80 64 54 46 38 35 34 31 29 27 26 25 24 22 21 20
35 26 26 28 31 29 26 25 31 36 40 52 56 67 73 78 74 68 45 50 64 70 86 93 97 94 93 98 98 97 90 83 71 57 46 41 35 32 31 31 30 26 24 24 22 22 22
34 28 25 26 29 31 28 28 27 32 35 50 59 64 72 78 82 83 71 69 75 81 84 93 93 88 96 99 98 97 93 87 80 66 54 48 41 34 31 29 26 26 25 29 25 24 23
32 26 24 24 26 29 29 28 28 26 33 41 51 56 64 73 86 89 87 88 92 95 94 87 86 83 97 98 93 95 92 88 82 73 62 51 44 40 36 33 35 31 41 29 29 28 28
33 27 19 20 26 27 29 27 26 25 27 35 41 44 50 67 76 85 89 87 91 88 83 88 90 86 93 91 86 96 91 81 77 71 64 53 48 47 44 46 48 40 37 32 32 32 30
42 33 18 17 19 26 28 27 28 26 28 33 36 37 39 49 57 67 84 78 75 77 75 81 88 83 81 83 83 88 82 73 72 67 60 56 55 57 47 43 41 40 38 36 35 36 36
50 38 26 16 18 20 26 29 27 26 27 35 36 39 35 37 43 48 63 67 71 76 78 81 82 76 76 75 78 84 83 75 74 69 65 66 65 60 56 52 50 48 46 48 47 46 46
51 39 38 21 17 18 22 28 31 30 26 29 35 42 44 35 40 43 47 56 66 72 71 78 79 81 77 75 79 82 78 72 68 66 66 69 65 54 50 49 50 49 49 52 52 52 49
46 47 39 34 19 18 19 23 31 34 33 30 32 39 46 41 42 45 43 46 54 62 71 82 81 82 82 76 78 79 76 72 67 70 67 65 58 54 51 49 47 54 52 50 51 53 52
41 50 40 42 25 17 18 19 25 31 35 35 33 34 39 39 39 40 41 43 46 58 76 82 80 79 80 80 78 77 77 72 70 69 66 64 54 53 55 53 49 57 51 48 47 49 51
34 43 43 41 37 18 17 17 20 26 31 35 36 32 30 32 34 35 36 40 51 56 86 83 80 78 74 72 75 74 71 66 66 62 56 55 51 51 49 46 44 44 45 47 47 50 54
29 36 42 42 38 28 16 17 18 23 28 31 35 37 31 28 29 31 35 41 46 65 69 72 74 73 72 70 66 65 63 60 62 59 59 53 52 48 45 46 43 44 45 58 58 63 60
25 32 37 41 39 42 22 16 17 21 23 28 32 36 37 34 30 30 32 34 51 60 64 60 61 65 68 68 65 61 56 60 54 52 56 60 55 51 48 51 50 49 56 59 67 66 66
22 26 34 38 42 39 38 18 16 17 20 23 29 33 37 41 40 37 32 47 53 51 52 59 62 60 60 58 56 54 58 59 53 50 53 55 57 53 55 58 61 70 69 72 77 75 74
21 24 28 36 38 40 43 35 18 16 17 19 22 28 31 37 40 41 46 55 57 56 57 57 56 54 54 53 54 53 56 55 56 56 56 59 64 60 63 65 70 74 80 81 88 82 84
21 22 25 29 37 38 38 45 32 19 16 17 20 23 26 30 35 36 51 56 58 59 62 64 63 61 61 60 56 55 59 62 63 67 67 70 71 73 76 77 78 82 82 85 86 87 80
21 22 24 27 33 38 37 38 43 31 20 15 20 22 22 26 30 36 42 43 46 51 55 57 59 59 59 61 65 65 65 63 62 64 71 68 69 79 74 71 73 77 77 78 84 83 81
20 22 25 28 31 36 38 38 37 39 34 24 18 19 20 26 32 36 36 37 38 39 39 42 44 44 44 47 57 51 50 51 52 54 55 55 60 67 66 65 64 66 68 70 72 76 79
19 22 23 28 32 34 37 37 38 37 37 39 30 23 20 22 26 28 32 33 35 33 34 33 34 35 37 37 34 33 32 36 35 35 40 40 47 51 51 45 48 52 50 55 56 63 58
19 20 23 31 31 33 37 38 39 38 37 37 44 37 25 29 25 26 26 28 30 32 32 30 33 31 28 30 30 29 28 28 33 33 34 37 42 39 36 34 34 34 34 40 49 41 48
19 21 22 31 32 33 35 38 39 39 39 38 41 50 41 29 25 23 27 28 27 28 26 29 29 29 28 28 27 28 28 27 28 32 32 34 38 36 35 28 32 34 30 30 33 37 38
20 20 23 31 36 38 39 42 42 41 40 40 41 41 47 50 35 29 28 27 27 26 26 27 27 28 27 26 27 26 25 24 25 31 33 35 39 39 39 32 32 30 25 23 24 22 27
23 22 22 25 34 40 44 45 47 43 41 44 43 42 42 48 51 43 32 27 26 27 28 28 29 28 25 26 23 20 22 25 27 29 33 37 40 45 48 40 36 17 20 21 22 21 21
27 24 24 27 31 39 44 48 51 50 46 43 48 46 46 45 44 41 45 38 30 27 28 28 26 27 27 26 27 25 25 27 28 31 34 35 41 48 50 51 30 25 23 24 25 21 20
28 29 34 34 39 44 48 53 57 56 53 50 50 53 51 51 46 42 39 43 47 39 33 30 30 32 31 31 32 33 29 24 26 34 36 41 44 50 53 52 40 19 21 21 23 24 20
41 39 42 48 49 57 61 66 65 64 62 56 55 58 59 57 48 50 50 43 38 46 49 41 36 34 35 38 40 38 35 26 29 29 39 43 48 52 54 54 38 23 23 24 23 16 20
55 56 63 63 61 67 73 73 71 70 68 64 63 63 63 63 59 50 52 51 52 48 48 48 47 50 51 46 45 41 41 36 36 31 36 39 44 50 53 57 46 23 26 24 20 21 21
73 78 76 73 74 77 77 76 73 73 73 72 71 69 68 67 63 62 59 54 50 48 45 48 47 48 43 52 55 57 56 53 47 47 33 36 32 33 37 32 22 23 22 23 24 24 24

GFSGBSN_prec_cthk_126.txt.gz
RH
20 23 26 25 24 27 31 28 32 43 51 61 70 73 74 69 50 39 61 67 77 86 91 92 97 96 96 97 98 97 87 68 52 45 35 30 26 23 23 23 24 25 27 27 26 24 23
23 21 22 24 25 27 32 28 31 42 48 55 63 76 84 81 58 42 61 66 73 78 91 96 95 97 97 96 99 92 82 71 58 50 41 34 29 26 25 24 23 26 26 26 25 23 22
26 23 21 22 22 27 28 27 28 37 42 46 67 77 83 87 78 78 66 73 71 77 87 89 92 92 92 97 96 88 80 73 62 55 47 38 33 29 27 26 25 25 25 24 25 23 22
28 20 20 21 21 24 25 22 26 33 40 41 55 66 80 86 89 84 77 78 76 82 89 90 92 88 95 97 89 81 78 72 64 54 47 40 36 32 30 29 27 26 26 27 25 22 21
32 20 17 17 23 21 25 24 25 30 37 36 44 50 70 81 87 92 89 90 91 88 86 83 85 85 95 97 94 90 89 73 63 55 48 43 38 36 32 31 32 29 34 26 26 25 25
34 28 16 16 18 24 23 25 25 28 36 36 37 43 53 71 79 90 89 82 84 86 85 80 78 81 94 96 87 84 85 78 69 59 50 44 40 41 38 39 37 31 35 29 28 27 27
38 35 21 15 17 21 27 25 26 25 30 34 34 39 43 55 64 74 83 76 73 88 79 80 87 87 88 86 85 79 72 74 74 65 60 53 51 52 44 38 34 30 31 30 30 31 32
43 37 32 18 16 18 24 29 29 25 24 29 33 38 43 47 51 66 75 68 72 78 76 75 75 82 77 76 77 74 68 67 60 64 61 59 58 50 47 44 42 40 41 42 40 40 42
46 39 35 24 16 16 19 27 32 31 23 25 29 32 37 41 43 50 58 63 67 69 68 75 74 71 70 72 78 73 70 68 68 70 69 66 59 50 47 46 47 50 48 50 51 50 45
40 39 36 34 17 15 17 22 29 32 29 22 26 28 32 34 36 40 48 52 57 60 67 72 70 71 68 67 69 73 68 67 67 69 66 65 62 57 54 51 50 54 54 53 54 52 48
33 39 38 38 28 14 15 18 24 30 32 27 22 25 27 27 29 34 41 48 51 51 69 66 70 68 66 64 63 66 65 59 65 65 63 61 56 60 58 55 50 53 50 50 50 52 53
26 34 39 37 40 21 15 16 21 27 31 31 28 25 25 26 26 29 36 44 49 53 74 68 67 68 69 67 68 68 64 61 65 64 61 59 55 54 54 52 49 48 49 50 51 52 56
20 28 35 39 37 39 19 15 17 21 27 30 31 31 30 27 27 29 32 42 46 63 62 64 64 62 63 66 66 64 63 61 62 60 64 59 56 50 47 48 47 46 47 55 55 58 56
20 23 30 37 38 37 36 21 15 17 21 27 32 34 36 38 37 33 30 35 49 56 58 59 63 61 61 58 56 57 57 59 52 50 55 55 53 47 43 45 44 46 52 59 63 64 62
21 21 24 31 38 38 38 34 20 15 16 20 27 30 34 38 39 38 32 46 47 50 50 53 55 55 53 51 50 50 52 52 48 46 46 51 50 46 48 51 54 63 63 64 69 70 74
19 20 22 25 34 37 38 35 33 18 14 16 19 25 27 32 34 36 44 55 55 52 51 50 49 46 50 47 49 50 53 50 50 49 52 50 56 55 58 61 65 67 72 77 82 79 74
18 19 21 23 30 34 37 37 35 32 20 14 16 19 22 27 28 30 45 50 54 56 59 59 58 56 53 53 53 57 59 60 60 62 61 63 69 68 72 73 72 76 76 80 79 80 79
18 18 20 24 29 31 36 37 37 34 36 22 16 20 20 23 25 32 37 38 40 42 46 49 52 55 56 55 55 54 54 53 53 53 59 59 60 70 68 67 70 73 73 74 78 76 79
16 18 18 22 30 30 34 36 36 36 33 38 27 18 19 19 26 32 33 32 33 36 37 38 38 37 39 45 47 41 40 41 42 44 47 49 55 60 56 55 58 62 59 62 66 68 69
15 17 19 19 27 30 32 37 38 37 35 34 43 35 22 21 24 26 28 31 31 30 30 32 32 32 35 34 31 30 30 34 36 39 41 41 45 44 33 31 40 44 42 46 49 56 51
15 17 18 19 23 31 34 38 42 40 37 35 36 45 41 35 28 25 26 27 29 32 30 29 30 29 28 30 29 29 27 28 31 33 36 37 41 39 37 35 36 37 36 40 47 39 45
15 17 19 20 21 26 31 36 39 44 40 37 38 40 45 46 38 32 29 28 26 26 28 30 30 29 29 29 27 27 27 26 26 31 33 35 36 36 36 29 31 34 30 30 33 36 39
15 19 19 20 20 21 26 33 37 40 44 42 40 41 40 46 47 44 40 35 31 28 25 25 27 28 27 25 25 26 27 26 27 31 34 37 41 41 41 32 34 30 22 22 26 29 30
23 23 25 24 22 23 28 33 37 43 46 48 46 44 45 44 47 45 42 43 41 36 31 28 29 28 24 25 24 21 22 24 26 29 31 38 41 45 47 40 36 18 21 22 25 22 23
31 33 27 27 24 24 29 37 41 45 52 53 52 48 48 51 48 40 42 39 39 42 41 36 31 29 28 28 29 26 24 28 32 37 40 42 46 52 52 53 31 22 20 22 24 18 18
42 40 37 33 32 34 35 42 48 53 61 60 57 54 52 55 51 48 45 48 45 44 40 42 44 40 38 36 35 35 28 23 24 33 38 43 46 51 56 57 39 17 19 21 21 23 17
45 42 41 41 41 42 48 53 58 63 65 67 64 61 58 58 57 56 54 49 47 42 49 45 46 49 44 46 49 46 40 31 32 34 43 49 51 53 52 54 42 25 23 24 26 21 21
57 57 55 57 60 60 59 62 65 69 69 70 69 68 67 64 62 58 57 58 57 57 59 51 48 50 55 54 54 48 47 48 50 45 48 50 57 58 56 56 52 27 28 28 24 23 25
72 74 74 74 75 77 75 75 75 76 74 75 74 74 73 72 67 66 64 62 60 54 54 52 50 51 53 56 54 55 57 63 62 64 60 57 51 56 59 52 38 37 30 29 30 29 28

GFSGBSN_prec_cthk_132.txt.gz
RH
19 21 23 26 25 26 23 27 31 37 44 64 74 78 72 73 77 96 97 97 93 90 78 67 68 82 94 95 97 91 71 52 40 37 36 31 26 24 26 25 24 26 27 26 26 25 25
19 20 24 26 26 25 21 24 28 34 43 59 73 76 69 71 80 95 98 97 97 78 74 67 63 78 77 87 95 88 69 48 39 38 38 34 28 23 23 25 24 25 24 25 24 23 22
23 20 22 26 27 25 18 21 26 31 40 55 68 70 68 72 84 90 97 98 97 87 66 73 69 68 74 95 89 78 67 50 40 40 39 34 29 25 25 26 25 24 24 23 23 23 22
26 23 23 20 26 25 18 21 25 28 33 49 61 71 63 67 74 86 95 97 97 95 80 74 80 85 95 90 84 78 69 54 43 40 39 35 29 25 27 26 25 26 25 24 24 23 23
34 24 24 18 23 26 23 19 25 26 29 40 54 60 66 65 69 77 87 96 96 96 88 81 84 89 94 90 84 78 69 57 45 38 38 37 31 29 28 28 29 29 29 23 25 25 25
37 22 23 18 20 24 27 23 23 25 26 30 47 56 64 64 64 72 79 81 90 92 89 80 84 89 96 89 80 74 70 61 50 42 37 39 36 35 33 32 34 29 32 27 25 27 25
35 31 21 21 18 21 25 29 23 24 25 25 37 50 57 58 62 64 66 67 66 76 78 87 85 80 85 84 79 73 67 62 53 49 48 45 43 45 37 32 29 31 30 26 27 27 26
33 35 28 22 20 19 23 26 29 25 23 25 28 41 49 50 54 59 60 55 58 63 63 67 67 70 72 70 67 65 61 58 55 52 48 46 49 41 36 33 30 29 28 30 28 28 30
27 34 35 27 23 17 21 24 27 29 26 22 24 32 40 44 45 47 52 49 52 55 56 60 63 64 67 69 67 64 59 55 56 56 49 48 45 39 36 35 35 38 36 38 39 36 34
22 29 35 35 27 21 17 21 26 28 30 26 23 27 32 34 40 42 44 46 47 47 55 61 63 62 61 61 63 65 65 64 61 57 53 53 47 43 40 41 38 40 42 44 46 47 45
17 23 32 37 35 28 18 16 22 26 31 31 25 25 30 33 32 36 40 44 44 44 67 61 63 64 67 64 62 64 64 61 65 66 58 58 55 52 50 49 47 49 50 51 52 56 57
16 18 26 34 40 35 30 15 15 21 27 32 33 29 31 32 33 34 36 39 39 50 66 64 64 64 64 64 65 61 59 62 62 63 64 66 61 56 53 52 51 53 53 53 58 56 54
15 17 19 29 36 40 34 32 14 14 19 25 31 32 28 30 32 32 31 34 41 55 54 64 67 64 61 63 63 61 61 61 61 59 65 63 63 59 56 55 52 50 49 50 44 55 42
14 15 17 19 32 36 39 34 32 15 13 18 22 29 32 27 28 28 27 33 51 54 52 45 51 57 61 57 57 53 53 59 56 55 63 63 59 53 50 48 48 49 44 47 38 56 55
13 14 15 16 24 32 37 40 34 33 17 13 17 21 27 31 27 25 25 40 46 48 47 49 47 44 48 52 53 55 53 52 49 47 46 53 52 47 44 45 45 52 51 48 56 55 62
12 13 14 15 17 28 32 39 40 32 34 23 13 16 21 23 27 28 32 46 47 47 49 49 47 42 42 41 42 44 46 43 44 43 42 44 49 45 45 47 51 51 53 60 64 69 70
11 12 13 14 14 22 28 31 38 39 32 34 27 14 17 19 20 22 42 46 48 50 53 56 57 55 56 58 55 52 51 49 50 49 49 50 51 54 58 59 61 65 65 66 66 67 73
10 11 12 13 14 17 24 27 29 35 37 33 32 38 19 15 18 26 32 33 36 41 44 48 52 54 56 56 56 56 55 54 53 53 54 54 56 65 64 61 62 63 64 62 61 61 64
9 10 10 12 13 14 19 22 25 28 34 37 35 34 37 29 25 27 28 29 31 31 32 34 36 36 38 40 40 38 36 39 40 41 43 43 46 46 40 46 50 52 50 51 52 53 55
9 11 10 10 12 12 14 19 22 25 29 34 38 43 36 35 42 34 30 27 27 28 30 30 29 28 28 29 29 30 28 31 33 35 36 36 40 35 26 20 35 44 42 43 46 56 48
10 12 14 15 13 14 16 19 20 24 26 31 39 45 46 46 42 42 40 34 32 28 27 27 28 28 27 27 26 27 25 25 29 31 33 33 37 37 34 33 34 33 33 39 45 39 45
11 11 14 18 18 14 16 21 21 21 25 30 36 44 48 50 47 45 42 43 39 35 33 29 28 27 28 27 24 26 27 27 25 32 35 37 38 38 38 31 34 37 33 33 36 39 40
15 15 17 20 20 18 20 26 28 27 29 29 34 40 44 51 53 51 48 42 43 43 37 37 35 33 31 29 27 26 26 27 27 31 35 39 42 42 41 34 36 30 26 29 30 30 31
23 24 25 28 28 27 27 31 33 32 30 32 33 36 41 44 52 53 52 51 48 45 45 43 41 39 36 35 32 29 29 31 34 36 38 42 44 46 49 41 29 17 19 21 26 25 27
31 31 32 37 42 41 38 36 38 37 38 39 41 42 44 50 51 51 54 51 51 51 50 46 42 44 43 41 42 39 33 35 43 44 42 44 48 51 57 59 36 22 23 25 25 20 19
50 54 54 52 49 47 45 45 44 45 46 46 48 51 55 55 56 55 56 57 60 56 53 47 45 45 49 50 49 46 38 30 43 51 51 51 57 62 68 74 54 35 36 35 33 30 23
58 57 56 55 55 51 49 47 48 49 53 57 60 64 64 65 63 62 64 64 63 62 63 60 58 59 57 57 54 55 52 45 43 47 57 62 69 72 73 74 66 53 44 47 49 43 43
56 53 53 54 53 50 50 50 53 58 65 70 71 71 71 70 73 70 69 70 71 69 69 67 65 63 63 59 57 55 59 52 51 47 58 62 65 69 70 76 73 47 51 50 49 49 48
52 49 46 44 44 49 53 58 60 64 67 71 76 79 78 79 78 76 77 75 73 73 72 71 66 63 62 63 61 61 64 63 58 56 57 60 58 62 61 57 51 53 52 49 48 49 50

GFSGBSN_prec_cthk_135.txt.gz
RH
23 19 23 22 18 20 19 23 28 42 53 55 57 69 80 89 93 97 98 84 87 78 82 67 79 93 90 96 93 92 75 56 44 39 30 27 29 26 29 28 29 30 30 27 27 25 26
25 20 18 22 20 18 19 22 27 39 49 53 55 66 79 93 97 95 96 81 76 75 72 69 72 80 93 96 93 81 61 48 42 41 33 29 29 24 25 28 26 27 27 28 27 26 26
27 22 18 20 23 20 20 21 25 36 45 50 55 63 78 90 95 92 80 68 72 66 64 66 80 87 87 91 83 68 56 46 41 43 37 29 25 23 25 26 26 25 24 24 26 25 26
26 24 19 18 22 24 21 20 22 30 40 50 53 58 68 84 91 91 80 76 71 66 63 66 76 74 88 82 74 66 55 46 39 38 37 31 25 23 24 24 25 25 24 24 25 25 24
35 22 21 21 20 23 25 20 20 25 34 43 50 55 60 70 81 85 81 84 87 73 66 72 77 74 86 82 74 66 52 48 41 36 36 34 28 29 26 26 26 28 28 22 23 24 24
33 29 23 20 20 21 24 25 18 21 29 35 42 51 56 60 69 74 69 72 73 79 86 83 82 81 87 82 74 65 56 47 40 35 32 33 31 32 31 28 29 27 30 26 24 27 25
27 35 27 24 21 20 22 26 24 18 21 30 34 44 53 55 59 63 66 66 65 70 76 82 91 85 86 81 76 68 58 49 41 37 38 36 37 40 35 30 27 30 28 28 29 28 28
24 32 36 26 23 21 21 23 27 22 18 22 30 35 43 49 55 57 63 61 61 65 67 71 74 84 81 77 74 72 65 55 46 44 38 40 44 40 36 33 30 29 28 30 28 27 27
19 26 37 36 26 23 18 21 24 28 21 19 23 30 34 38 44 48 53 53 58 61 61 67 70 70 73 73 72 66 65 60 56 52 45 44 43 40 37 36 34 36 31 32 31 31 30
15 20 32 38 36 26 23 16 21 26 30 22 21 24 26 31 34 36 41 45 48 52 62 67 70 70 70 65 66 64 59 56 52 49 49 46 42 39 39 39 34 34 37 36 38 36 35
14 16 23 36 37 36 27 20 15 21 26 30 25 25 26 27 31 34 38 43 45 45 67 65 67 68 71 68 67 66 61 56 57 57 43 49 48 44 44 42 38 40 41 42 44 47 50
13 13 16 23 37 40 35 28 17 15 20 25 29 25 25 25 27 30 33 36 41 53 69 65 65 65 64 64 63 62 60 60 60 59 59 58 51 48 47 46 45 45 45 46 49 50 50
12 13 14 16 30 36 41 34 30 17 14 18 23 29 27 24 25 26 28 29 38 59 62 66 64 63 60 59 57 58 60 62 63 62 70 62 58 54 52 52 51 49 48 47 44 52 41
12 12 13 13 19 31 36 40 33 32 17 13 18 23 28 28 25 24 25 28 45 48 54 56 59 58 60 59 59 59 59 60 59 57 66 68 65 60 56 55 54 53 46 46 32 42 44
12 12 12 12 13 22 27 35 40 33 33 20 14 18 21 24 25 26 24 39 43 44 41 44 46 52 54 55 53 54 54 54 55 53 49 58 57 54 52 52 46 49 49 42 51 52 56
10 12 12 12 12 15 21 25 32 37 32 32 28 16 17 19 21 23 30 44 45 44 44 42 42 41 45 47 48 49 49 47 46 45 42 43 50 46 44 46 49 48 48 53 55 61 62
9 10 11 12 12 13 15 18 22 29 35 32 30 32 20 17 18 21 37 41 45 48 51 51 50 48 47 47 46 46 46 45 46 45 43 43 46 49 50 52 55 59 59 60 61 63 66
8 9 9 11 11 12 12 14 17 21 29 34 35 35 32 29 20 25 32 34 35 40 43 46 48 52 53 54 53 54 52 50 50 50 53 51 53 65 60 59 61 62 63 62 58 56 58
8 9 9 9 10 11 11 13 18 17 21 28 36 38 34 31 40 38 30 30 31 32 33 34 36 37 38 38 39 40 38 40 40 41 43 43 46 44 38 47 51 52 51 50 50 51 53
9 10 9 8 10 13 13 13 14 19 18 22 30 43 41 41 42 40 42 35 29 28 28 29 30 29 30 30 31 29 29 33 34 34 34 33 37 28 23 17 32 40 41 41 43 53 45
10 10 11 11 12 12 13 15 17 19 23 21 25 35 41 46 48 48 43 41 43 34 28 26 27 27 27 28 27 28 27 27 31 32 33 32 34 36 32 30 30 30 31 39 43 36 40
14 12 12 15 18 16 16 18 20 21 26 28 25 28 34 38 40 46 49 48 43 41 43 36 29 26 26 25 23 23 26 28 27 34 36 38 38 39 38 32 36 38 33 35 36 37 40
20 18 18 19 22 23 21 21 24 25 29 30 31 32 32 40 42 45 46 47 50 47 42 41 43 40 37 31 28 26 25 26 27 32 37 39 42 42 41 34 35 31 26 29 31 31 31
24 24 24 25 28 29 30 29 34 35 36 37 37 36 34 38 43 47 50 50 51 54 51 46 44 45 43 41 39 36 33 33 35 37 40 45 45 45 49 41 33 21 26 26 29 27 28
33 34 35 34 35 39 42 44 44 45 45 45 43 42 40 44 46 48 49 54 50 51 57 56 53 48 48 47 43 44 41 44 50 45 49 51 52 52 57 64 49 35 37 44 42 32 27
46 46 49 50 47 50 52 51 49 50 51 49 47 46 45 49 52 51 56 54 58 61 58 57 54 51 48 53 55 51 44 39 50 56 59 55 52 53 67 75 58 42 48 46 49 44 41
56 56 59 58 56 57 55 54 53 53 54 52 51 51 53 58 60 59 61 63 65 67 64 63 65 66 65 65 62 59 54 49 49 55 63 64 68 67 68 70 60 55 49 52 51 47 48
52 54 57 59 57 56 56 55 56 55 54 55 57 59 62 63 64 67 69 68 69 76 75 71 72 71 72 70 67 61 60 55 55 54 63 64 67 72 74 76 75 49 57 56 52 50 50
59 59 59 58 59 59 55 54 54 56 58 64 69 70 69 69 67 73 76 77 78 81 84 83 80 71 68 70 69 67 67 67 64 63 65 65 63 69 66 65 59 59 59 59 59 58 57

GFSGBSN_prec_cthk_138.txt.gz
RH
20 19 20 20 17 16 19 24 34 41 45 54 68 76 78 76 75 78 78 80 86 81 85 82 84 83 91 96 94 93 83 62 45 31 27 31 34 33 33 30 24 21 22 22 22 21 21
20 19 21 20 21 16 18 23 31 39 44 49 59 72 75 76 66 74 76 82 89 80 80 86 87 83 76 93 88 84 66 54 42 33 28 31 30 30 30 32 29 27 23 22 21 21 21
22 20 19 20 21 20 17 21 26 35 41 46 53 61 68 71 66 63 63 76 77 78 82 92 97 96 94 88 78 72 58 49 43 37 31 29 28 27 28 29 30 30 28 26 25 24 24
28 22 19 21 20 22 18 18 24 30 37 44 49 57 60 66 73 68 65 68 65 74 87 91 93 88 82 80 71 63 56 45 41 41 30 26 24 24 26 26 26 27 28 28 29 28 26
33 27 22 19 22 21 22 18 20 26 31 40 45 50 55 58 67 70 70 73 74 79 80 85 86 85 75 70 66 61 56 49 43 38 34 25 22 25 24 24 24 24 30 25 27 27 27
28 35 27 22 19 21 22 22 18 21 28 34 39 46 47 55 59 59 64 70 73 80 81 79 85 79 79 73 64 56 54 45 41 38 33 28 26 25 23 23 23 23 26 24 23 25 24
21 33 35 27 21 20 21 23 21 19 24 31 35 39 42 48 53 60 61 64 68 79 76 79 83 82 78 72 65 56 49 43 37 37 36 34 31 37 28 24 20 20 20 22 23 25 24
18 24 34 35 27 19 19 23 25 21 20 26 30 35 36 41 47 51 57 57 57 65 78 79 78 79 78 71 65 56 49 44 40 38 36 36 38 35 31 28 25 23 22 24 25 26 23
14 18 27 37 36 27 18 17 23 26 23 21 25 28 31 36 41 46 47 50 56 59 62 74 79 78 76 73 72 63 54 47 43 40 37 38 40 37 34 31 27 29 24 26 25 24 23
14 14 20 29 40 36 28 18 16 22 27 24 24 24 26 28 32 37 40 41 46 52 64 68 67 69 70 66 69 64 59 54 47 44 39 40 39 37 35 34 32 27 32 30 29 26 31
14 13 14 22 31 41 37 29 16 15 21 26 25 24 25 26 28 31 35 41 43 40 70 64 65 65 67 64 62 60 54 48 48 45 39 43 39 35 35 37 33 37 35 35 35 34 41
13 13 12 16 21 33 41 37 30 17 14 19 24 26 25 25 26 27 28 32 37 51 62 62 62 62 58 60 62 59 56 49 47 44 44 45 44 41 39 38 35 37 36 36 37 37 44
11 12 12 12 16 22 31 39 37 32 19 14 18 23 26 24 25 26 27 27 47 55 51 53 57 57 55 58 58 59 62 59 56 63 59 46 44 44 43 42 40 39 38 49 44 46 36
9 11 12 11 13 16 20 27 35 36 30 26 14 17 20 23 24 24 25 28 40 49 50 50 54 52 55 58 57 57 55 60 61 59 62 60 54 47 45 46 46 47 43 46 36 33 32
8 9 10 11 10 12 14 18 25 31 34 29 30 18 16 18 22 23 25 41 45 36 36 44 45 47 51 51 50 48 50 53 56 56 55 58 60 57 54 52 48 51 48 42 47 46 47
8 8 9 9 10 10 12 13 19 25 29 34 32 28 24 16 18 21 28 39 41 42 41 38 33 36 38 41 41 42 44 46 47 45 43 45 54 57 56 53 50 46 45 51 47 55 52
8 7 8 8 9 9 10 11 15 20 24 29 35 32 30 27 20 19 34 36 38 43 47 46 44 42 39 38 39 38 36 39 38 38 37 35 35 43 41 40 41 48 47 48 47 50 55
8 8 7 7 7 8 8 10 12 15 21 25 30 40 37 32 33 34 31 31 32 35 38 41 45 48 48 49 48 47 45 45 45 45 45 41 41 48 44 48 51 52 50 51 51 52 47
9 8 8 7 7 9 11 11 11 13 17 20 23 30 35 37 45 43 41 38 30 30 30 31 32 32 34 36 35 37 38 41 43 41 42 41 41 40 41 47 49 53 50 48 44 42 44
10 9 9 8 8 10 11 12 13 14 16 20 21 29 28 33 40 42 45 42 41 37 28 28 28 28 28 27 29 27 27 31 34 34 36 35 34 30 20 19 30 35 36 37 36 46 28
16 12 10 10 10 11 13 15 16 15 17 20 24 29 29 33 36 39 42 45 46 40 40 35 26 26 25 24 25 25 25 28 31 31 31 28 29 30 25 24 26 26 24 32 36 30 30
21 19 16 13 14 16 18 19 19 18 19 23 27 31 32 33 32 36 40 44 45 46 45 40 41 32 27 23 21 21 24 26 25 33 34 33 32 32 31 24 28 30 27 28 30 33 33
24 23 21 19 18 20 21 22 23 23 24 30 35 35 34 36 35 34 37 41 47 47 47 48 43 40 43 39 32 28 29 29 28 30 35 36 37 36 31 29 29 25 22 25 28 27 28
35 30 28 27 26 26 27 28 29 29 33 37 41 40 39 38 38 38 41 45 45 49 51 51 52 50 46 44 43 44 42 39 36 36 39 41 43 43 40 34 37 22 27 30 31 29 30
40 39 38 36 35 36 38 39 38 39 43 44 45 47 45 44 42 41 43 47 48 48 51 57 58 59 58 51 46 42 39 45 54 56 55 46 48 51 50 47 35 38 40 42 43 41 40
51 43 41 40 44 45 48 51 51 47 47 48 48 49 49 46 43 43 48 50 52 57 57 58 58 56 57 53 52 50 44 40 47 58 60 59 58 54 55 57 45 36 42 47 48 40 39
57 55 49 47 49 52 55 55 55 55 55 53 52 51 48 48 46 49 55 56 59 63 64 64 66 69 69 69 66 60 53 50 46 50 64 67 68 69 63 62 53 52 51 53 54 50 52
68 64 60 56 57 56 55 55 55 58 58 58 56 55 49 49 50 53 59 62 65 67 70 74 75 74 80 80 71 65 62 55 54 52 62 63 67 72 73 74 73 55 56 56 55 58 61
65 65 67 67 59 58 57 56 59 59 60 62 60 59 60 63 61 61 64 69 70 73 75 79 84 82 84 81 75 71 68 66 61 58 65 68 66 69 68 67 66 65 66 63 63 65 65

GFSGBSN_prec_cthk_141.txt.gz
RH
19 19 21 22 17 17 20 25 32 38 44 50 54 51 51 59 71 81 86 77 86 92 97 94 92 85 82 78 98 97 95 89 64 48 40 38 43 41 34 25 22 21 20 20 20 21 21
21 20 20 22 19 16 19 23 28 35 40 47 52 56 60 53 60 77 87 85 90 90 83 79 85 71 68 93 97 96 81 63 48 43 44 42 44 42 36 26 22 21 21 21 21 21 21
23 22 21 22 21 18 16 21 26 32 37 43 49 55 62 63 60 62 68 81 91 88 88 79 83 84 80 95 89 76 63 49 45 46 53 46 41 35 32 26 22 21 21 22 22 22 21
27 25 23 20 23 20 18 17 24 30 35 40 44 50 57 64 69 67 71 78 83 88 90 86 81 76 83 81 72 65 58 48 43 42 42 37 34 33 32 28 26 21 20 21 22 21 20
26 28 26 23 21 23 21 18 20 28 34 37 40 48 54 56 64 76 84 89 87 85 86 84 79 74 74 74 65 60 55 50 42 41 35 33 31 32 32 31 29 28 31 24 24 23 23
21 28 31 27 22 22 23 21 18 24 32 36 37 43 52 56 61 67 75 84 86 87 86 85 79 73 75 68 62 55 44 48 41 37 30 29 29 29 29 30 31 27 31 28 27 28 25
16 23 29 34 27 22 21 24 21 19 26 33 34 39 44 51 55 58 65 77 84 81 79 79 77 69 69 66 63 55 48 45 41 38 28 27 28 32 28 27 22 23 24 24 26 26 24
13 18 24 33 35 27 23 20 24 23 20 27 30 34 38 43 49 51 56 67 77 80 78 80 77 72 66 64 61 57 52 46 41 37 33 34 35 29 24 23 20 20 21 24 25 23 21
13 14 18 24 38 36 28 24 18 23 24 22 24 29 30 32 40 47 46 54 62 70 73 78 81 76 71 62 60 56 52 51 45 43 40 36 35 30 27 25 24 25 23 24 25 23 21
13 12 15 18 23 38 39 29 24 18 21 24 24 24 25 26 26 36 40 40 49 57 67 69 71 75 75 68 61 56 52 50 47 47 43 40 37 35 31 31 30 26 30 27 24 22 29
12 13 12 14 18 21 34 39 30 25 18 20 24 25 25 24 25 28 32 35 39 44 72 63 67 65 68 68 61 54 52 49 47 45 44 45 40 37 37 38 32 34 30 30 27 27 35
11 12 12 11 13 15 20 31 37 31 27 20 19 23 25 25 25 23 29 30 33 54 66 61 60 63 63 60 59 54 47 46 47 44 42 42 39 38 38 34 31 31 31 31 31 32 50
9 10 11 11 11 13 14 20 30 35 30 28 21 18 22 23 25 25 24 28 49 56 46 52 56 55 56 61 59 55 52 45 44 57 57 40 40 36 37 34 32 31 32 52 49 51 38
8 8 9 10 10 11 12 14 22 28 31 32 26 24 18 22 21 23 23 31 44 45 45 47 52 50 53 54 55 57 55 56 49 44 44 49 48 39 37 40 40 36 36 50 49 36 34
7 7 7 8 9 9 10 11 15 23 27 32 30 29 24 22 20 20 28 43 46 33 38 42 41 42 44 44 46 48 53 56 54 51 47 45 51 44 44 42 41 43 44 38 44 44 47
8 7 7 7 7 8 8 9 12 16 24 26 30 36 31 26 25 23 27 34 36 36 35 31 32 34 33 38 40 41 44 46 50 51 46 43 52 47 46 44 42 42 40 49 45 54 49
10 8 7 7 6 7 8 10 10 13 17 23 27 35 35 33 30 31 38 32 32 35 41 42 38 33 32 34 34 34 33 36 37 38 39 41 43 51 49 45 43 43 40 40 41 41 50
12 10 8 7 7 8 10 10 11 13 15 17 20 30 28 32 40 38 39 37 31 33 33 35 38 42 41 42 39 39 39 39 39 38 37 37 40 44 35 37 36 37 40 41 43 49 42
15 12 10 8 8 8 10 11 13 14 14 15 19 22 23 26 39 40 44 42 39 37 29 30 30 29 30 31 32 33 36 40 39 37 38 36 35 37 36 39 43 47 45 46 46 45 42
15 15 13 11 10 9 10 12 15 15 14 14 18 28 27 27 29 32 38 41 45 41 38 35 27 26 25 25 25 26 26 31 32 33 33 31 30 32 31 26 29 31 31 34 39 45 31
19 15 15 15 14 14 13 14 16 16 16 15 19 27 28 33 32 33 36 37 40 43 43 40 35 33 26 23 23 22 22 25 29 30 30 30 28 28 25 22 22 23 22 28 32 28 26
24 20 16 15 15 16 17 16 16 17 17 18 21 28 32 32 32 34 35 38 39 41 44 45 43 38 37 34 26 23 23 23 23 29 32 32 31 29 28 20 23 25 22 25 25 29 31
29 28 25 22 19 19 19 20 19 20 22 24 28 33 37 37 37 34 34 37 42 42 43 44 46 45 43 40 40 40 36 31 29 29 33 33 31 34 31 29 28 25 20 21 21 23 24
37 35 33 30 29 27 27 27 26 27 30 34 38 39 42 41 39 39 37 38 41 45 47 47 47 50 51 49 47 43 42 43 43 41 40 41 39 40 42 34 42 24 22 25 28 31 33
49 44 41 40 37 35 33 34 35 35 37 42 46 45 46 45 43 42 38 38 40 43 45 50 55 56 57 59 55 52 48 47 49 50 51 50 54 53 51 43 33 30 33 37 41 40 39
57 53 49 46 44 43 41 39 41 46 45 47 50 48 48 48 46 43 40 39 40 47 51 53 55 55 55 54 55 54 50 45 53 60 56 56 54 53 54 54 41 35 39 42 45 46 40
62 59 57 53 52 47 47 50 51 51 51 53 54 55 54 51 49 47 42 41 45 50 54 55 60 64 66 66 64 62 61 58 55 53 65 65 66 64 62 62 52 48 47 48 52 49 49
65 66 67 65 62 60 58 60 58 55 56 57 57 57 58 60 56 52 49 50 54 61 64 63 65 68 71 74 73 70 66 65 66 58 65 65 66 69 69 72 72 59 56 57 56 55 59
69 62 61 63 63 64 63 62 59 60 57 58 59 62 62 62 59 57 55 58 62 63 69 70 72 69 70 74 77 77 74 72 69 66 69 69 64 67 70 68 68 66 69 70 70 69 68